Time,TemperatureF,DewpointF,PressureIn,WindDirection,WindDirectionDegrees,WindSpeedMPH,WindSpeedGustMPH,Humidity,HourlyPrecipIn,Conditions,Clouds,dailyrainin,SoftwareType,DateUTC
2013-09-21 00:00:00,47.8,41.9,29.97,North,0,0.0,0.0,80,0.00,,,0.00,WUHU216DAVISVP2,2013-09-21 05:00:00,
2013-09-21 00:01:00,47.9,42.1,29.97,NW,315,0.0,0.0,80,0.00,,,0.00,WUHU216DAVISVP2,2013-09-21 05:01:00,
2013-09-21 00:05:00,48.0,42.1,29.97,North,0,0.0,0.0,80,0.00,,,0.00,WUHU216DAVISVP2,2013-09-21 05:05:00,
2013-09-21 00:06:00,48.0,42.2,29.97,NW,315,0.0,0.0,80,0.00,,,0.00,WUHU216DAVISVP2,2013-09-21 05:06:00,
2013-09-21 00:10:00,48.1,42.2,29.97,North,0,0.0,0.0,80,0.00,,,0.00,WUHU216DAVISVP2,2013-09-21 05:10:00,
2013-09-21 00:11:00,48.1,42.3,29.97,NW,315,0.0,0.0,80,0.00,,,0.00,WUHU216DAVISVP2,2013-09-21 05:11:00,
2013-09-21 00:15:00,48.2,42.3,29.97,North,0,0.0,0.0,80,0.00,,,0.00,WUHU216DAVISVP2,2013-09-21 05:15:00,
2013-09-21 00:16:00,48.2,42.4,29.97,NW,315,0.0,0.0,80,0.00,,,0.00,WUHU216DAVISVP2,2013-09-21 05:16:00,
2013-09-21 00:20:00,48.4,42.8,29.97,North,0,0.0,0.0,81,0.00,,,0.00,WUHU216DAVISVP2,2013-09-21 05:20:00,
2013-09-21 00:21:00,48.5,43.0,29.97,NW,315,0.0,0.0,81,0.00,,,0.00,WUHU216DAVISVP2,2013-09-21 05:21:00,
2013-09-21 00:25:00,48.6,43.0,29.97,North,0,0.0,0.0,81,0.00,,,0.00,WUHU216DAVISVP2,2013-09-21 05:25:00,
2013-09-21 00:26:00,48.6,43.1,29.97,NW,315,0.0,0.0,81,0.00,,,0.00,WUHU216DAVISVP2,2013-09-21 05:26:00,
2013-09-21 00:30:00,48.7,43.1,29.97,North,0,0.0,0.0,81,0.00,,,0.00,WUHU216DAVISVP2,2013-09-21 05:30:00,
2013-09-21 00:31:00,48.7,43.2,29.97,NW,315,0.0,0.0,81,0.00,,,0.00,WUHU216DAVISVP2,2013-09-21 05:31:00,
2013-09-21 00:35:00,48.8,43.2,29.97,North,0,0.0,0.0,81,0.00,,,0.00,WUHU216DAVISVP2,2013-09-21 05:35:00,
2013-09-21 00:36:00,48.8,43.3,29.97,NW,315,0.0,0.0,81,0.00,,,0.00,WUHU216DAVISVP2,2013-09-21 05:36:00,
2013-09-21 00:40:00,48.9,43.3,29.97,North,0,0.0,0.0,81,0.00,,,0.00,WUHU216DAVISVP2,2013-09-21 05:40:00,
2013-09-21 00:41:00,49.0,43.4,29.97,NW,315,0.0,0.0,81,0.00,,,0.00,WUHU216DAVISVP2,2013-09-21 05:41:00,
2013-09-21 00:45:00,49.0,43.4,29.97,North,0,0.0,0.0,81,0.00,,,0.00,WUHU216DAVISVP2,2013-09-21 05:45:00,
2013-09-21 00:46:00,49.0,43.4,29.97,NW,315,0.0,0.0,81,0.00,,,0.00,WUHU216DAVISVP2,2013-09-21 05:46:00,
2013-09-21 00:50:00,49.1,43.5,29.97,North,0,0.0,0.0,81,0.00,,,0.00,WUHU216DAVISVP2,2013-09-21 05:50:00,
2013-09-21 00:51:00,49.1,43.5,29.97,NW,315,0.0,0.0,81,0.00,,,0.00,WUHU216DAVISVP2,2013-09-21 05:51:00,
2013-09-21 00:55:00,49.2,43.6,29.97,North,0,0.0,0.0,81,0.00,,,0.00,WUHU216DAVISVP2,2013-09-21 05:55:00,
2013-09-21 00:56:00,49.2,43.6,29.97,NW,315,0.0,0.0,81,0.00,,,0.00,WUHU216DAVISVP2,2013-09-21 05:56:00,
2013-09-21 01:00:00,49.2,43.6,29.97,North,0,0.0,0.0,81,0.00,,,0.00,WUHU216DAVISVP2,2013-09-21 06:00:00,
2013-09-21 01:01:00,49.2,43.6,29.97,NW,315,0.0,0.0,81,0.00,,,0.00,WUHU216DAVISVP2,2013-09-21 06:01:00,
2013-09-21 01:05:00,49.3,43.7,29.97,North,0,0.0,0.0,81,0.00,,,0.00,WUHU216DAVISVP2,2013-09-21 06:05:00,
2013-09-21 01:06:00,49.3,43.7,29.97,NW,315,0.0,0.0,81,0.00,,,0.00,WUHU216DAVISVP2,2013-09-21 06:06:00,
2013-09-21 01:10:00,49.6,43.7,29.97,North,0,0.0,0.0,80,0.00,,,0.00,WUHU216DAVISVP2,2013-09-21 06:10:00,
2013-09-21 01:11:00,49.7,43.8,29.97,NW,315,0.0,0.0,80,0.00,,,0.00,WUHU216DAVISVP2,2013-09-21 06:11:00,
2013-09-21 01:15:00,50.1,43.5,29.98,North,0,0.0,0.0,78,0.00,,,0.00,WUHU216DAVISVP2,2013-09-21 06:15:00,
2013-09-21 01:16:00,50.1,43.6,29.98,NW,315,0.0,0.0,78,0.00,,,0.00,WUHU216DAVISVP2,2013-09-21 06:16:00,
2013-09-21 01:20:00,50.4,43.5,29.98,North,0,0.0,0.0,77,0.00,,,0.00,WUHU216DAVISVP2,2013-09-21 06:20:00,
2013-09-21 01:21:00,50.4,43.5,29.98,NW,315,0.0,0.0,77,0.00,,,0.00,WUHU216DAVISVP2,2013-09-21 06:21:00,
2013-09-21 01:25:00,50.5,43.6,29.98,North,0,0.0,0.0,77,0.00,,,0.00,WUHU216DAVISVP2,2013-09-21 06:25:00,
2013-09-21 01:26:00,50.5,43.6,29.97,NW,315,0.0,0.0,77,0.00,,,0.00,WUHU216DAVISVP2,2013-09-21 06:26:00,
2013-09-21 01:30:00,50.6,43.7,29.98,North,0,0.0,0.0,77,0.00,,,0.00,WUHU216DAVISVP2,2013-09-21 06:30:00,
2013-09-21 01:31:00,50.6,43.7,29.98,NW,315,0.0,0.0,77,0.00,,,0.00,WUHU216DAVISVP2,2013-09-21 06:31:00,
2013-09-21 01:35:00,50.6,43.7,29.98,North,0,0.0,0.0,77,0.00,,,0.00,WUHU216DAVISVP2,2013-09-21 06:35:00,
2013-09-21 01:36:00,50.6,43.7,29.98,NW,315,0.0,0.0,77,0.00,,,0.00,WUHU216DAVISVP2,2013-09-21 06:36:00,
2013-09-21 01:40:00,50.6,43.7,29.98,North,0,0.0,0.0,77,0.00,,,0.00,WUHU216DAVISVP2,2013-09-21 06:40:00,
2013-09-21 01:41:00,50.5,43.6,29.98,NW,315,0.0,0.0,77,0.00,,,0.00,WUHU216DAVISVP2,2013-09-21 06:41:00,
2013-09-21 01:45:00,50.6,43.7,29.98,North,0,0.0,0.0,77,0.00,,,0.00,WUHU216DAVISVP2,2013-09-21 06:45:00,
2013-09-21 01:46:00,50.6,43.7,29.98,NW,315,0.0,0.0,77,0.00,,,0.00,WUHU216DAVISVP2,2013-09-21 06:46:00,
2013-09-21 01:50:00,50.6,44.0,29.98,North,0,0.0,0.0,78,0.00,,,0.00,WUHU216DAVISVP2,2013-09-21 06:50:00,
2013-09-21 01:51:00,50.6,44.0,29.98,NW,315,0.0,0.0,78,0.00,,,0.00,WUHU216DAVISVP2,2013-09-21 06:51:00,
2013-09-21 01:55:00,50.5,43.6,29.98,North,0,0.0,0.0,77,0.00,,,0.00,WUHU216DAVISVP2,2013-09-21 06:55:00,
2013-09-21 01:56:00,50.5,43.6,29.98,NW,315,0.0,0.0,77,0.00,,,0.00,WUHU216DAVISVP2,2013-09-21 06:56:00,
2013-09-21 02:00:00,50.5,43.6,29.98,North,0,0.0,0.0,77,0.00,,,0.00,WUHU216DAVISVP2,2013-09-21 07:00:00,
2013-09-21 02:01:00,50.4,43.5,29.98,NW,315,0.0,0.0,77,0.00,,,0.00,WUHU216DAVISVP2,2013-09-21 07:01:00,
2013-09-21 02:05:00,50.4,43.5,29.98,North,0,0.0,0.0,77,0.00,,,0.00,WUHU216DAVISVP2,2013-09-21 07:05:00,
2013-09-21 02:06:00,50.4,43.5,29.98,NW,315,0.0,0.0,77,0.00,,,0.00,WUHU216DAVISVP2,2013-09-21 07:06:00,
2013-09-21 02:10:00,50.4,43.1,29.98,North,0,0.0,0.0,76,0.00,,,0.00,WUHU216DAVISVP2,2013-09-21 07:10:00,
2013-09-21 02:11:00,50.4,43.2,29.98,NW,315,0.0,0.0,76,0.00,,,0.00,WUHU216DAVISVP2,2013-09-21 07:11:00,
2013-09-21 02:15:00,50.4,42.8,29.98,North,0,0.0,0.0,75,0.00,,,0.00,WUHU216DAVISVP2,2013-09-21 07:15:00,
2013-09-21 02:16:00,50.5,42.9,29.98,NW,315,0.0,0.0,75,0.00,,,0.00,WUHU216DAVISVP2,2013-09-21 07:16:00,
2013-09-21 02:20:00,50.5,42.5,29.98,North,0,0.0,0.0,74,0.00,,,0.00,WUHU216DAVISVP2,2013-09-21 07:20:00,
2013-09-21 02:21:00,50.5,42.6,29.98,NW,315,0.0,0.0,74,0.00,,,0.00,WUHU216DAVISVP2,2013-09-21 07:21:00,
2013-09-21 02:25:00,50.5,42.5,29.98,North,0,0.0,0.0,74,0.00,,,0.00,WUHU216DAVISVP2,2013-09-21 07:25:00,
2013-09-21 02:26:00,50.5,42.6,29.98,NW,315,0.0,0.0,74,0.00,,,0.00,WUHU216DAVISVP2,2013-09-21 07:26:00,
2013-09-21 02:30:00,50.5,42.5,29.98,North,0,0.0,0.0,74,0.00,,,0.00,WUHU216DAVISVP2,2013-09-21 07:30:00,
2013-09-21 02:31:00,50.5,42.6,29.98,NW,315,0.0,0.0,74,0.00,,,0.00,WUHU216DAVISVP2,2013-09-21 07:31:00,
2013-09-21 02:35:00,50.5,42.5,29.98,North,0,0.0,0.0,74,0.00,,,0.00,WUHU216DAVISVP2,2013-09-21 07:35:00,
2013-09-21 02:36:00,50.5,42.6,29.98,NW,315,0.0,0.0,74,0.00,,,0.00,WUHU216DAVISVP2,2013-09-21 07:36:00,
2013-09-21 02:40:00,50.4,42.1,29.98,North,0,0.0,4.0,73,0.00,,,0.00,WUHU216DAVISVP2,2013-09-21 07:40:00,
2013-09-21 02:41:00,50.4,42.2,29.98,North,360,0.0,4.0,73,0.00,,,0.00,WUHU216DAVISVP2,2013-09-21 07:41:00,
2013-09-21 02:45:00,50.3,42.3,29.98,North,0,0.0,4.0,74,0.00,,,0.00,WUHU216DAVISVP2,2013-09-21 07:45:00,
2013-09-21 02:46:00,50.2,42.3,29.98,North,360,0.0,4.0,74,0.00,,,0.00,WUHU216DAVISVP2,2013-09-21 07:46:00,
2013-09-21 02:50:00,50.0,42.0,29.98,North,0,0.0,4.0,74,0.00,,,0.00,WUHU216DAVISVP2,2013-09-21 07:50:00,
2013-09-21 02:51:00,49.9,42.0,29.98,North,360,0.0,0.0,74,0.00,,,0.00,WUHU216DAVISVP2,2013-09-21 07:51:00,
2013-09-21 02:55:00,49.7,41.7,29.97,North,0,0.0,0.0,74,0.00,,,0.00,WUHU216DAVISVP2,2013-09-21 07:55:00,
2013-09-21 02:56:00,49.6,42.1,29.97,North,360,0.0,0.0,75,0.00,,,0.00,WUHU216DAVISVP2,2013-09-21 07:56:00,
2013-09-21 03:00:00,49.4,41.8,29.97,North,0,0.0,0.0,75,0.00,,,0.00,WUHU216DAVISVP2,2013-09-21 08:00:00,
2013-09-21 03:01:00,49.4,41.9,29.97,North,360,0.0,0.0,75,0.00,,,0.00,WUHU216DAVISVP2,2013-09-21 08:01:00,
2013-09-21 03:05:00,49.2,41.6,29.97,North,0,0.0,0.0,75,0.00,,,0.00,WUHU216DAVISVP2,2013-09-21 08:05:00,
2013-09-21 03:06:00,49.2,41.7,29.97,North,360,0.0,0.0,75,0.00,,,0.00,WUHU216DAVISVP2,2013-09-21 08:06:00,
2013-09-21 03:10:00,48.9,41.7,29.97,North,0,0.0,0.0,76,0.00,,,0.00,WUHU216DAVISVP2,2013-09-21 08:10:00,
2013-09-21 03:11:00,48.8,41.6,29.97,North,360,0.0,0.0,76,0.00,,,0.00,WUHU216DAVISVP2,2013-09-21 08:11:00,
2013-09-21 03:15:00,48.5,41.3,29.97,North,0,0.0,0.0,76,0.00,,,0.00,WUHU216DAVISVP2,2013-09-21 08:15:00,
2013-09-21 03:16:00,48.4,41.6,29.97,North,360,0.0,0.0,77,0.00,,,0.00,WUHU216DAVISVP2,2013-09-21 08:16:00,
2013-09-21 03:20:00,48.1,41.2,29.97,North,0,0.0,0.0,77,0.00,,,0.00,WUHU216DAVISVP2,2013-09-21 08:20:00,
2013-09-21 03:21:00,48.0,41.2,29.97,North,360,0.0,0.0,77,0.00,,,0.00,WUHU216DAVISVP2,2013-09-21 08:21:00,
2013-09-21 03:25:00,47.7,41.2,29.97,North,0,0.0,0.0,78,0.00,,,0.00,WUHU216DAVISVP2,2013-09-21 08:25:00,
2013-09-21 03:26:00,47.6,41.1,29.97,North,360,0.0,0.0,78,0.00,,,0.00,WUHU216DAVISVP2,2013-09-21 08:26:00,
2013-09-21 03:30:00,47.4,41.2,29.97,North,0,0.0,0.0,79,0.00,,,0.00,WUHU216DAVISVP2,2013-09-21 08:30:00,
2013-09-21 03:31:00,47.3,41.2,29.97,North,360,0.0,0.0,79,0.00,,,0.00,WUHU216DAVISVP2,2013-09-21 08:31:00,
2013-09-21 03:35:00,47.1,40.9,29.97,North,0,0.0,0.0,79,0.00,,,0.00,WUHU216DAVISVP2,2013-09-21 08:35:00,
2013-09-21 03:36:00,47.0,40.9,29.97,North,360,0.0,0.0,79,0.00,,,0.00,WUHU216DAVISVP2,2013-09-21 08:36:00,
2013-09-21 03:40:00,46.9,41.1,29.97,North,0,0.0,0.0,80,0.00,,,0.00,WUHU216DAVISVP2,2013-09-21 08:40:00,
2013-09-21 03:41:00,46.9,41.1,29.97,North,360,0.0,0.0,80,0.00,,,0.00,WUHU216DAVISVP2,2013-09-21 08:41:00,
2013-09-21 03:45:00,46.8,41.0,29.98,North,0,0.0,0.0,80,0.00,,,0.00,WUHU216DAVISVP2,2013-09-21 08:45:00,
2013-09-21 03:46:00,46.8,41.3,29.98,North,360,0.0,0.0,81,0.00,,,0.00,WUHU216DAVISVP2,2013-09-21 08:46:00,
2013-09-21 03:50:00,46.8,41.3,29.98,North,0,0.0,0.0,81,0.00,,,0.00,WUHU216DAVISVP2,2013-09-21 08:50:00,
2013-09-21 03:51:00,46.8,41.3,29.98,North,360,0.0,0.0,81,0.00,,,0.00,WUHU216DAVISVP2,2013-09-21 08:51:00,
2013-09-21 03:55:00,46.8,41.3,29.98,North,0,0.0,0.0,81,0.00,,,0.00,WUHU216DAVISVP2,2013-09-21 08:55:00,
2013-09-21 03:56:00,46.8,41.3,29.98,North,360,0.0,0.0,81,0.00,,,0.00,WUHU216DAVISVP2,2013-09-21 08:56:00,
2013-09-21 04:00:00,46.8,41.3,29.98,North,0,0.0,0.0,81,0.00,,,0.00,WUHU216DAVISVP2,2013-09-21 09:00:00,
2013-09-21 04:01:00,46.8,41.3,29.98,North,360,0.0,0.0,81,0.00,,,0.00,WUHU216DAVISVP2,2013-09-21 09:01:00,
2013-09-21 04:05:00,46.8,41.3,29.98,North,0,0.0,0.0,81,0.00,,,0.00,WUHU216DAVISVP2,2013-09-21 09:05:00,
2013-09-21 04:06:00,46.8,41.6,29.98,North,360,0.0,0.0,82,0.00,,,0.00,WUHU216DAVISVP2,2013-09-21 09:06:00,
2013-09-21 04:10:00,46.8,41.6,29.98,North,0,0.0,0.0,82,0.00,,,0.00,WUHU216DAVISVP2,2013-09-21 09:10:00,
2013-09-21 04:11:00,46.7,41.5,29.98,North,360,0.0,0.0,82,0.00,,,0.00,WUHU216DAVISVP2,2013-09-21 09:11:00,
2013-09-21 04:15:00,46.7,41.5,29.98,North,0,0.0,0.0,82,0.00,,,0.00,WUHU216DAVISVP2,2013-09-21 09:15:00,
2013-09-21 04:16:00,46.7,41.5,29.98,North,360,0.0,0.0,82,0.00,,,0.00,WUHU216DAVISVP2,2013-09-21 09:16:00,
2013-09-21 04:20:00,46.6,41.4,29.98,North,0,0.0,0.0,82,0.00,,,0.00,WUHU216DAVISVP2,2013-09-21 09:20:00,
2013-09-21 04:22:00,46.6,41.4,29.98,North,360,0.0,0.0,82,0.00,,,0.00,WUHU216DAVISVP2,2013-09-21 09:22:00,
2013-09-21 04:25:00,46.5,41.3,29.98,North,0,0.0,0.0,82,0.00,,,0.00,WUHU216DAVISVP2,2013-09-21 09:25:00,
2013-09-21 04:27:00,46.4,41.2,29.98,North,360,0.0,0.0,82,0.00,,,0.00,WUHU216DAVISVP2,2013-09-21 09:27:00,
2013-09-21 04:30:00,46.3,41.1,29.98,North,0,0.0,0.0,82,0.00,,,0.00,WUHU216DAVISVP2,2013-09-21 09:30:00,
2013-09-21 04:32:00,46.2,41.0,29.98,North,360,0.0,0.0,82,0.00,,,0.00,WUHU216DAVISVP2,2013-09-21 09:32:00,
2013-09-21 04:35:00,46.1,40.9,29.98,North,0,0.0,0.0,82,0.00,,,0.00,WUHU216DAVISVP2,2013-09-21 09:35:00,
2013-09-21 04:37:00,46.0,40.8,29.98,North,360,0.0,0.0,82,0.00,,,0.00,WUHU216DAVISVP2,2013-09-21 09:37:00,
2013-09-21 04:40:00,45.9,40.7,29.98,North,0,0.0,0.0,82,0.00,,,0.00,WUHU216DAVISVP2,2013-09-21 09:40:00,
2013-09-21 04:42:00,45.8,40.6,29.98,North,360,0.0,0.0,82,0.00,,,0.00,WUHU216DAVISVP2,2013-09-21 09:42:00,
2013-09-21 04:45:00,45.6,40.7,29.98,North,0,0.0,0.0,83,0.00,,,0.00,WUHU216DAVISVP2,2013-09-21 09:45:00,
2013-09-21 04:47:00,45.6,40.7,29.98,North,360,0.0,0.0,83,0.00,,,0.00,WUHU216DAVISVP2,2013-09-21 09:47:00,
2013-09-21 04:50:00,45.5,40.6,29.98,North,0,0.0,0.0,83,0.00,,,0.00,WUHU216DAVISVP2,2013-09-21 09:50:00,
2013-09-21 04:52:00,45.4,40.5,29.98,North,360,0.0,0.0,83,0.00,,,0.00,WUHU216DAVISVP2,2013-09-21 09:52:00,
2013-09-21 04:55:00,45.3,40.4,29.98,North,0,0.0,0.0,83,0.00,,,0.00,WUHU216DAVISVP2,2013-09-21 09:55:00,
2013-09-21 04:57:00,45.2,40.3,29.98,North,360,0.0,0.0,83,0.00,,,0.00,WUHU216DAVISVP2,2013-09-21 09:57:00,
2013-09-21 05:00:00,45.1,40.2,29.98,North,0,0.0,0.0,83,0.00,,,0.00,WUHU216DAVISVP2,2013-09-21 10:00:00,
2013-09-21 05:02:00,45.0,40.1,29.98,North,360,0.0,0.0,83,0.00,,,0.00,WUHU216DAVISVP2,2013-09-21 10:02:00,
2013-09-21 05:05:00,45.0,40.5,29.99,North,0,0.0,0.0,84,0.00,,,0.00,WUHU216DAVISVP2,2013-09-21 10:05:00,
2013-09-21 05:07:00,45.0,40.5,29.98,North,360,0.0,0.0,84,0.00,,,0.00,WUHU216DAVISVP2,2013-09-21 10:07:00,
2013-09-21 05:10:00,44.9,40.4,29.99,North,0,0.0,0.0,84,0.00,,,0.00,WUHU216DAVISVP2,2013-09-21 10:10:00,
2013-09-21 05:12:00,44.9,40.4,29.99,North,360,0.0,0.0,84,0.00,,,0.00,WUHU216DAVISVP2,2013-09-21 10:12:00,
2013-09-21 05:15:00,44.8,40.3,29.99,North,0,0.0,0.0,84,0.00,,,0.00,WUHU216DAVISVP2,2013-09-21 10:15:00,
2013-09-21 05:17:00,44.7,40.2,29.99,North,360,0.0,0.0,84,0.00,,,0.00,WUHU216DAVISVP2,2013-09-21 10:17:00,
2013-09-21 05:20:00,44.6,40.1,29.99,North,0,0.0,0.0,84,0.00,,,0.00,WUHU216DAVISVP2,2013-09-21 10:20:00,
2013-09-21 05:22:00,44.6,40.1,29.99,North,360,0.0,0.0,84,0.00,,,0.00,WUHU216DAVISVP2,2013-09-21 10:22:00,
2013-09-21 05:25:00,44.4,39.9,29.99,North,0,0.0,0.0,84,0.00,,,0.00,WUHU216DAVISVP2,2013-09-21 10:25:00,
2013-09-21 05:27:00,44.4,39.9,29.99,North,360,0.0,0.0,84,0.00,,,0.00,WUHU216DAVISVP2,2013-09-21 10:27:00,
2013-09-21 05:30:00,44.3,39.8,29.99,North,0,0.0,0.0,84,0.00,,,0.00,WUHU216DAVISVP2,2013-09-21 10:30:00,
2013-09-21 05:32:00,44.3,40.1,29.99,North,360,0.0,0.0,85,0.00,,,0.00,WUHU216DAVISVP2,2013-09-21 10:32:00,
2013-09-21 05:35:00,44.2,40.0,29.99,North,0,0.0,0.0,85,0.00,,,0.00,WUHU216DAVISVP2,2013-09-21 10:35:00,
2013-09-21 05:37:00,44.1,39.9,29.99,North,360,0.0,0.0,85,0.00,,,0.00,WUHU216DAVISVP2,2013-09-21 10:37:00,
2013-09-21 05:40:00,44.1,39.9,29.99,North,0,0.0,0.0,85,0.00,,,0.00,WUHU216DAVISVP2,2013-09-21 10:40:00,
2013-09-21 05:42:00,44.1,39.9,29.99,North,360,0.0,0.0,85,0.00,,,0.00,WUHU216DAVISVP2,2013-09-21 10:42:00,
2013-09-21 05:45:00,44.0,39.8,29.99,North,0,0.0,0.0,85,0.00,,,0.00,WUHU216DAVISVP2,2013-09-21 10:45:00,
2013-09-21 05:47:00,44.0,39.8,29.99,North,360,0.0,0.0,85,0.00,,,0.00,WUHU216DAVISVP2,2013-09-21 10:47:00,
2013-09-21 05:50:00,43.8,39.6,29.99,North,0,0.0,0.0,85,0.00,,,0.00,WUHU216DAVISVP2,2013-09-21 10:50:00,
2013-09-21 05:52:00,43.8,39.6,29.99,North,360,0.0,0.0,85,0.00,,,0.00,WUHU216DAVISVP2,2013-09-21 10:52:00,
2013-09-21 05:55:00,43.7,39.5,29.99,North,0,0.0,0.0,85,0.00,,,0.00,WUHU216DAVISVP2,2013-09-21 10:55:00,
2013-09-21 05:57:00,43.6,39.4,29.99,North,360,0.0,0.0,85,0.00,,,0.00,WUHU216DAVISVP2,2013-09-21 10:57:00,
2013-09-21 06:00:00,43.5,39.3,29.99,North,0,0.0,0.0,85,0.00,,,0.00,WUHU216DAVISVP2,2013-09-21 11:00:00,
2013-09-21 06:02:00,43.5,39.3,29.99,North,360,0.0,0.0,85,0.00,,,0.00,WUHU216DAVISVP2,2013-09-21 11:02:00,
2013-09-21 06:05:00,43.4,39.2,29.99,North,0,0.0,0.0,85,0.00,,,0.00,WUHU216DAVISVP2,2013-09-21 11:05:00,
2013-09-21 06:07:00,43.4,39.5,29.99,North,360,0.0,0.0,86,0.00,,,0.00,WUHU216DAVISVP2,2013-09-21 11:07:00,
2013-09-21 06:10:00,43.3,39.4,29.99,North,0,0.0,0.0,86,0.00,,,0.00,WUHU216DAVISVP2,2013-09-21 11:10:00,
2013-09-21 06:12:00,43.3,39.4,29.99,North,360,0.0,0.0,86,0.00,,,0.00,WUHU216DAVISVP2,2013-09-21 11:12:00,
2013-09-21 06:15:00,43.2,39.3,29.99,North,0,0.0,0.0,86,0.00,,,0.00,WUHU216DAVISVP2,2013-09-21 11:15:00,
2013-09-21 06:17:00,43.1,39.2,29.99,North,360,0.0,0.0,86,0.00,,,0.00,WUHU216DAVISVP2,2013-09-21 11:17:00,
2013-09-21 06:20:00,43.0,39.1,29.99,North,0,0.0,0.0,86,0.00,,,0.00,WUHU216DAVISVP2,2013-09-21 11:20:00,
2013-09-21 06:22:00,43.0,39.1,29.99,North,360,0.0,0.0,86,0.00,,,0.00,WUHU216DAVISVP2,2013-09-21 11:22:00,
2013-09-21 06:25:00,43.0,39.1,29.99,North,0,0.0,0.0,86,0.00,,,0.00,WUHU216DAVISVP2,2013-09-21 11:25:00,
2013-09-21 06:27:00,43.0,39.1,29.99,North,360,0.0,0.0,86,0.00,,,0.00,WUHU216DAVISVP2,2013-09-21 11:27:00,
2013-09-21 06:30:00,42.9,39.0,29.99,North,0,0.0,0.0,86,0.00,,,0.00,WUHU216DAVISVP2,2013-09-21 11:30:00,
2013-09-21 06:32:00,42.9,39.0,29.99,North,360,0.0,0.0,86,0.00,,,0.00,WUHU216DAVISVP2,2013-09-21 11:32:00,
2013-09-21 06:35:00,42.9,39.0,29.99,North,0,0.0,0.0,86,0.00,,,0.00,WUHU216DAVISVP2,2013-09-21 11:35:00,
2013-09-21 06:37:00,42.9,39.0,29.99,North,360,0.0,0.0,86,0.00,,,0.00,WUHU216DAVISVP2,2013-09-21 11:37:00,
2013-09-21 06:40:00,42.8,38.9,29.99,North,0,0.0,0.0,86,0.00,,,0.00,WUHU216DAVISVP2,2013-09-21 11:40:00,
2013-09-21 06:42:00,42.7,38.8,29.99,North,360,0.0,0.0,86,0.00,,,0.00,WUHU216DAVISVP2,2013-09-21 11:42:00,
2013-09-21 06:45:00,42.7,38.8,29.99,North,0,0.0,0.0,86,0.00,,,0.00,WUHU216DAVISVP2,2013-09-21 11:45:00,
2013-09-21 06:47:00,42.7,38.8,29.99,North,360,0.0,0.0,86,0.00,,,0.00,WUHU216DAVISVP2,2013-09-21 11:47:00,
2013-09-21 06:50:00,42.8,39.2,29.99,North,0,0.0,0.0,87,0.00,,,0.00,WUHU216DAVISVP2,2013-09-21 11:50:00,
2013-09-21 06:52:00,42.8,39.2,29.99,North,360,0.0,0.0,87,0.00,,,0.00,WUHU216DAVISVP2,2013-09-21 11:52:00,
2013-09-21 06:55:00,42.7,39.1,29.99,North,0,0.0,0.0,87,0.00,,,0.00,WUHU216DAVISVP2,2013-09-21 11:55:00,
2013-09-21 06:57:00,42.7,39.1,29.99,North,360,0.0,0.0,87,0.00,,,0.00,WUHU216DAVISVP2,2013-09-21 11:57:00,
2013-09-21 07:00:00,42.7,39.1,29.99,North,0,0.0,0.0,87,0.00,,,0.00,WUHU216DAVISVP2,2013-09-21 12:00:00,
2013-09-21 07:02:00,42.6,39.0,29.99,North,360,0.0,0.0,87,0.00,,,0.00,WUHU216DAVISVP2,2013-09-21 12:02:00,
2013-09-21 07:05:00,42.5,38.6,29.99,North,0,0.0,0.0,86,0.00,,,0.00,WUHU216DAVISVP2,2013-09-21 12:05:00,
2013-09-21 07:07:00,42.5,38.6,29.99,North,360,0.0,0.0,86,0.00,,,0.00,WUHU216DAVISVP2,2013-09-21 12:07:00,
2013-09-21 07:10:00,42.3,38.4,29.99,North,0,0.0,0.0,86,0.00,,,0.00,WUHU216DAVISVP2,2013-09-21 12:10:00,
2013-09-21 07:12:00,42.3,38.4,29.99,North,360,0.0,0.0,86,0.00,,,0.00,WUHU216DAVISVP2,2013-09-21 12:12:00,
2013-09-21 07:15:00,42.3,38.7,29.99,North,0,0.0,0.0,87,0.00,,,0.00,WUHU216DAVISVP2,2013-09-21 12:15:00,
2013-09-21 07:17:00,42.3,38.7,29.99,North,360,0.0,0.0,87,0.00,,,0.00,WUHU216DAVISVP2,2013-09-21 12:17:00,
2013-09-21 07:20:00,42.2,38.6,29.99,North,0,0.0,0.0,87,0.00,,,0.00,WUHU216DAVISVP2,2013-09-21 12:20:00,
2013-09-21 07:22:00,42.2,38.6,29.99,North,360,0.0,0.0,87,0.00,,,0.00,WUHU216DAVISVP2,2013-09-21 12:22:00,
2013-09-21 07:25:00,42.1,38.5,29.99,North,0,0.0,0.0,87,0.00,,,0.00,WUHU216DAVISVP2,2013-09-21 12:25:00,
2013-09-21 07:27:00,42.1,38.5,29.99,North,360,0.0,0.0,87,0.00,,,0.00,WUHU216DAVISVP2,2013-09-21 12:27:00,
2013-09-21 07:30:00,42.0,38.4,29.99,North,0,0.0,0.0,87,0.00,,,0.00,WUHU216DAVISVP2,2013-09-21 12:30:00,
2013-09-21 07:32:00,42.0,38.4,29.99,North,360,0.0,0.0,87,0.00,,,0.00,WUHU216DAVISVP2,2013-09-21 12:32:00,
2013-09-21 07:35:00,42.1,38.5,29.99,North,0,0.0,0.0,87,0.00,,,0.00,WUHU216DAVISVP2,2013-09-21 12:35:00,
2013-09-21 07:37:00,42.1,38.5,29.99,North,360,0.0,0.0,87,0.00,,,0.00,WUHU216DAVISVP2,2013-09-21 12:37:00,
2013-09-21 07:40:00,42.1,38.5,29.99,North,0,0.0,0.0,87,0.00,,,0.00,WUHU216DAVISVP2,2013-09-21 12:40:00,
2013-09-21 07:42:00,42.1,38.5,29.99,North,360,0.0,0.0,87,0.00,,,0.00,WUHU216DAVISVP2,2013-09-21 12:42:00,
2013-09-21 07:45:00,42.1,38.5,29.99,North,0,0.0,0.0,87,0.00,,,0.00,WUHU216DAVISVP2,2013-09-21 12:45:00,
2013-09-21 07:47:00,42.1,38.5,29.99,North,360,0.0,0.0,87,0.00,,,0.00,WUHU216DAVISVP2,2013-09-21 12:47:00,
2013-09-21 07:50:00,42.2,38.6,29.99,North,0,0.0,0.0,87,0.00,,,0.00,WUHU216DAVISVP2,2013-09-21 12:50:00,
2013-09-21 07:52:00,42.2,38.6,29.99,North,360,0.0,0.0,87,0.00,,,0.00,WUHU216DAVISVP2,2013-09-21 12:52:00,
2013-09-21 07:55:00,42.4,38.8,29.99,North,0,0.0,0.0,87,0.00,,,0.00,WUHU216DAVISVP2,2013-09-21 12:55:00,
2013-09-21 07:57:00,42.4,38.8,29.99,North,360,0.0,0.0,87,0.00,,,0.00,WUHU216DAVISVP2,2013-09-21 12:57:00,
2013-09-21 08:00:00,42.7,39.1,29.99,North,0,0.0,0.0,87,0.00,,,0.00,WUHU216DAVISVP2,2013-09-21 13:00:00,
2013-09-21 08:02:00,42.9,39.3,29.99,North,360,0.0,0.0,87,0.00,,,0.00,WUHU216DAVISVP2,2013-09-21 13:02:00,
2013-09-21 08:05:00,43.4,40.1,29.99,North,0,0.0,0.0,88,0.00,,,0.00,WUHU216DAVISVP2,2013-09-21 13:05:00,
2013-09-21 08:07:00,43.6,40.2,30.00,North,360,0.0,0.0,88,0.00,,,0.00,WUHU216DAVISVP2,2013-09-21 13:07:00,
2013-09-21 08:10:00,43.9,40.6,30.00,North,0,0.0,0.0,88,0.00,,,0.00,WUHU216DAVISVP2,2013-09-21 13:10:00,
2013-09-21 08:12:00,44.0,40.6,30.00,North,360,0.0,1.0,88,0.00,,,0.00,WUHU216DAVISVP2,2013-09-21 13:12:00,
2013-09-21 08:15:00,44.5,41.2,30.00,North,0,0.0,1.0,88,0.00,,,0.00,WUHU216DAVISVP2,2013-09-21 13:15:00,
2013-09-21 08:17:00,44.6,41.2,30.00,North,360,0.0,1.0,88,0.00,,,0.00,WUHU216DAVISVP2,2013-09-21 13:17:00,
2013-09-21 08:20:00,45.0,41.7,30.00,North,0,0.0,1.0,88,0.00,,,0.00,WUHU216DAVISVP2,2013-09-21 13:20:00,
2013-09-21 08:22:00,45.1,41.7,30.00,North,360,0.0,0.0,88,0.00,,,0.00,WUHU216DAVISVP2,2013-09-21 13:22:00,
2013-09-21 08:25:00,45.4,41.8,30.00,North,0,0.0,1.0,87,0.00,,,0.00,WUHU216DAVISVP2,2013-09-21 13:25:00,
2013-09-21 08:27:00,45.5,41.8,30.00,North,360,0.0,3.0,87,0.00,,,0.00,WUHU216DAVISVP2,2013-09-21 13:27:00,
2013-09-21 08:30:00,45.8,42.2,30.00,North,0,1.0,3.0,87,0.00,,,0.00,WUHU216DAVISVP2,2013-09-21 13:30:00,
2013-09-21 08:32:00,45.9,41.9,30.00,North,360,0.0,3.0,86,0.00,,,0.00,WUHU216DAVISVP2,2013-09-21 13:32:00,
2013-09-21 08:35:00,46.0,42.0,30.01,North,0,0.0,3.0,86,0.00,,,0.00,WUHU216DAVISVP2,2013-09-21 13:35:00,
2013-09-21 08:37:00,46.1,41.8,30.01,North,360,0.0,3.0,85,0.00,,,0.00,WUHU216DAVISVP2,2013-09-21 13:37:00,
2013-09-21 08:40:00,46.3,42.0,30.01,North,0,0.0,3.0,85,0.00,,,0.00,WUHU216DAVISVP2,2013-09-21 13:40:00,
2013-09-21 08:42:00,46.3,42.0,30.01,North,360,0.0,3.0,85,0.00,,,0.00,WUHU216DAVISVP2,2013-09-21 13:42:00,
2013-09-21 08:45:00,46.4,41.8,30.01,North,0,0.0,3.0,84,0.00,,,0.00,WUHU216DAVISVP2,2013-09-21 13:45:00,
2013-09-21 08:47:00,46.5,41.9,30.01,North,360,0.0,3.0,84,0.00,,,0.00,WUHU216DAVISVP2,2013-09-21 13:47:00,
2013-09-21 08:50:00,46.7,41.8,30.01,North,0,0.0,3.0,83,0.00,,,0.00,WUHU216DAVISVP2,2013-09-21 13:50:00,
2013-09-21 08:52:00,46.7,41.8,30.01,North,360,0.0,0.0,83,0.00,,,0.00,WUHU216DAVISVP2,2013-09-21 13:52:00,
2013-09-21 08:55:00,47.0,42.1,30.01,North,0,0.0,0.0,83,0.00,,,0.00,WUHU216DAVISVP2,2013-09-21 13:55:00,
2013-09-21 08:57:00,47.0,42.1,30.01,North,360,0.0,0.0,83,0.00,,,0.00,WUHU216DAVISVP2,2013-09-21 13:57:00,
2013-09-21 09:00:00,47.1,41.9,30.01,North,0,0.0,0.0,82,0.00,,,0.00,WUHU216DAVISVP2,2013-09-21 14:00:00,
2013-09-21 09:02:00,47.1,41.9,30.01,North,360,0.0,0.0,82,0.00,,,0.00,WUHU216DAVISVP2,2013-09-21 14:02:00,
2013-09-21 09:05:00,47.2,42.0,30.01,North,0,0.0,0.0,82,0.00,,,0.00,WUHU216DAVISVP2,2013-09-21 14:05:00,
2013-09-21 09:07:00,47.2,42.0,30.01,North,360,0.0,0.0,82,0.00,,,0.00,WUHU216DAVISVP2,2013-09-21 14:07:00,
2013-09-21 09:10:00,47.3,41.8,30.01,North,0,0.0,0.0,81,0.00,,,0.00,WUHU216DAVISVP2,2013-09-21 14:10:00,
2013-09-21 09:12:00,47.3,41.8,30.01,North,360,0.0,0.0,81,0.00,,,0.00,WUHU216DAVISVP2,2013-09-21 14:12:00,
2013-09-21 09:15:00,47.3,41.4,30.01,North,0,0.0,0.0,80,0.00,,,0.00,WUHU216DAVISVP2,2013-09-21 14:15:00,
2013-09-21 09:17:00,47.3,41.5,30.01,North,360,0.0,0.0,80,0.00,,,0.00,WUHU216DAVISVP2,2013-09-21 14:17:00,
2013-09-21 09:20:00,47.4,41.2,30.01,North,0,0.0,0.0,79,0.00,,,0.00,WUHU216DAVISVP2,2013-09-21 14:20:00,
2013-09-21 09:22:00,47.4,41.3,30.01,North,360,0.0,0.0,79,0.00,,,0.00,WUHU216DAVISVP2,2013-09-21 14:22:00,
2013-09-21 09:25:00,47.5,41.3,30.01,North,0,0.0,0.0,79,0.00,,,0.00,WUHU216DAVISVP2,2013-09-21 14:25:00,
2013-09-21 09:27:00,47.6,41.4,30.01,North,360,0.0,0.0,79,0.00,,,0.00,WUHU216DAVISVP2,2013-09-21 14:27:00,
2013-09-21 09:30:00,47.8,41.6,30.01,North,0,0.0,0.0,79,0.00,,,0.00,WUHU216DAVISVP2,2013-09-21 14:30:00,
2013-09-21 09:32:00,47.8,41.3,30.01,North,360,0.0,0.0,78,0.00,,,0.00,WUHU216DAVISVP2,2013-09-21 14:32:00,
2013-09-21 09:35:00,47.9,41.0,30.01,North,0,0.0,0.0,77,0.00,,,0.00,WUHU216DAVISVP2,2013-09-21 14:35:00,
2013-09-21 09:37:00,48.0,41.2,30.01,North,360,0.0,0.0,77,0.00,,,0.00,WUHU216DAVISVP2,2013-09-21 14:37:00,
2013-09-21 09:40:00,48.1,40.5,30.01,North,0,1.0,5.0,75,0.00,,,0.00,WUHU216DAVISVP2,2013-09-21 14:40:00,
2013-09-21 09:42:00,48.1,40.6,30.01,North,10,0.0,5.0,75,0.00,,,0.00,WUHU216DAVISVP2,2013-09-21 14:42:00,
2013-09-21 09:45:00,48.2,40.6,30.01,North,0,0.0,5.0,75,0.00,,,0.00,WUHU216DAVISVP2,2013-09-21 14:45:00,
2013-09-21 09:47:00,48.3,40.8,30.02,North,10,0.0,5.0,75,0.00,,,0.00,WUHU216DAVISVP2,2013-09-21 14:47:00,
2013-09-21 09:50:00,48.4,41.2,30.01,North,0,0.0,5.0,76,0.00,,,0.00,WUHU216DAVISVP2,2013-09-21 14:50:00,
2013-09-21 09:52:00,48.5,41.3,30.01,North,11,0.0,0.0,76,0.00,,,0.00,WUHU216DAVISVP2,2013-09-21 14:52:00,
2013-09-21 09:55:00,48.7,41.5,30.02,North,0,0.0,0.0,76,0.00,,,0.00,WUHU216DAVISVP2,2013-09-21 14:55:00,
2013-09-21 09:57:00,48.7,41.2,30.02,North,11,0.0,0.0,75,0.00,,,0.00,WUHU216DAVISVP2,2013-09-21 14:57:00,
2013-09-21 10:00:00,48.9,41.3,30.01,North,0,0.0,0.0,75,0.00,,,0.00,WUHU216DAVISVP2,2013-09-21 15:00:00,
2013-09-21 10:02:00,49.1,41.2,30.02,North,10,0.0,0.0,74,0.00,,,0.00,WUHU216DAVISVP2,2013-09-21 15:02:00,
2013-09-21 10:05:00,49.3,41.0,30.01,North,0,0.0,0.0,73,0.00,,,0.00,WUHU216DAVISVP2,2013-09-21 15:05:00,
2013-09-21 10:07:00,49.4,41.2,30.02,North,11,0.0,0.0,73,0.00,,,0.00,WUHU216DAVISVP2,2013-09-21 15:07:00,
2013-09-21 10:10:00,49.5,40.8,30.01,North,0,0.0,0.0,72,0.00,,,0.00,WUHU216DAVISVP2,2013-09-21 15:10:00,
2013-09-21 10:12:00,49.5,40.9,30.01,North,11,0.0,0.0,72,0.00,,,0.00,WUHU216DAVISVP2,2013-09-21 15:12:00,
2013-09-21 10:15:00,49.6,40.9,30.01,North,0,0.0,5.0,72,0.00,,,0.00,WUHU216DAVISVP2,2013-09-21 15:15:00,
2013-09-21 10:17:00,49.6,40.7,30.02,North,360,0.0,5.0,71,0.00,,,0.00,WUHU216DAVISVP2,2013-09-21 15:17:00,
2013-09-21 10:20:00,49.9,40.9,30.02,North,0,0.0,5.0,71,0.00,,,0.00,WUHU216DAVISVP2,2013-09-21 15:20:00,
2013-09-21 10:22:00,50.0,41.1,30.02,North,360,0.0,5.0,71,0.00,,,0.00,WUHU216DAVISVP2,2013-09-21 15:22:00,
2013-09-21 10:25:00,50.2,40.8,30.02,North,0,0.0,5.0,70,0.00,,,0.00,WUHU216DAVISVP2,2013-09-21 15:25:00,
2013-09-21 10:27:00,50.3,41.0,30.02,North,5,0.0,3.0,70,0.00,,,0.00,WUHU216DAVISVP2,2013-09-21 15:27:00,
2013-09-21 10:30:00,50.4,41.0,30.02,North,0,0.0,3.0,70,0.00,,,0.00,WUHU216DAVISVP2,2013-09-21 15:30:00,
2013-09-21 10:32:00,50.4,41.1,30.02,North,5,0.0,3.0,70,0.00,,,0.00,WUHU216DAVISVP2,2013-09-21 15:32:00,
2013-09-21 10:35:00,50.6,41.5,30.01,North,0,0.0,3.0,71,0.00,,,0.00,WUHU216DAVISVP2,2013-09-21 15:35:00,
2013-09-21 10:37:00,50.7,41.7,30.01,North,5,0.0,3.0,71,0.00,,,0.00,WUHU216DAVISVP2,2013-09-21 15:37:00,
2013-09-21 10:40:00,50.7,40.9,30.01,North,0,0.0,3.0,69,0.00,,,0.00,WUHU216DAVISVP2,2013-09-21 15:40:00,
2013-09-21 10:42:00,50.7,41.4,30.01,North,5,0.0,3.0,70,0.00,,,0.00,WUHU216DAVISVP2,2013-09-21 15:42:00,
2013-09-21 10:45:00,51.0,41.6,30.01,North,0,0.0,3.0,70,0.00,,,0.00,WUHU216DAVISVP2,2013-09-21 15:45:00,
2013-09-21 10:47:00,51.1,41.4,30.01,North,360,0.0,0.0,69,0.00,,,0.00,WUHU216DAVISVP2,2013-09-21 15:47:00,
2013-09-21 10:50:00,51.5,41.7,30.01,North,0,0.0,3.0,69,0.00,,,0.00,WUHU216DAVISVP2,2013-09-21 15:50:00,
2013-09-21 10:52:00,51.7,42.0,30.01,North,5,0.0,0.0,69,0.00,,,0.00,WUHU216DAVISVP2,2013-09-21 15:52:00,
2013-09-21 10:55:00,52.2,42.0,30.01,North,0,0.0,0.0,68,0.00,,,0.00,WUHU216DAVISVP2,2013-09-21 15:55:00,
2013-09-21 10:57:00,52.5,42.4,30.01,North,360,0.0,0.0,68,0.00,,,0.00,WUHU216DAVISVP2,2013-09-21 15:57:00,
2013-09-21 11:00:00,53.0,41.9,30.01,NNE,23,0.0,4.0,66,0.00,,,0.00,WUHU216DAVISVP2,2013-09-21 16:00:00,
2013-09-21 11:02:00,52.9,42.0,30.01,NNE,32,0.0,4.0,66,0.00,,,0.00,WUHU216DAVISVP2,2013-09-21 16:02:00,
2013-09-21 11:05:00,53.1,42.4,30.01,North,0,0.0,4.0,67,0.00,,,0.00,WUHU216DAVISVP2,2013-09-21 16:05:00,
2013-09-21 11:07:00,53.3,42.4,30.01,NNE,32,0.0,4.0,66,0.00,,,0.00,WUHU216DAVISVP2,2013-09-21 16:07:00,
2013-09-21 11:10:00,53.7,42.2,30.01,North,0,0.0,4.0,65,0.00,,,0.00,WUHU216DAVISVP2,2013-09-21 16:10:00,
2013-09-21 11:12:00,53.8,42.4,30.01,NNE,32,0.0,0.0,65,0.00,,,0.00,WUHU216DAVISVP2,2013-09-21 16:12:00,
2013-09-21 11:15:00,54.2,42.3,30.01,North,0,0.0,0.0,64,0.00,,,0.00,WUHU216DAVISVP2,2013-09-21 16:15:00,
2013-09-21 11:17:00,54.2,42.0,30.01,NNE,32,0.0,0.0,63,0.00,,,0.00,WUHU216DAVISVP2,2013-09-21 16:17:00,
2013-09-21 11:20:00,54.2,42.3,30.01,North,0,0.0,0.0,64,0.00,,,0.00,WUHU216DAVISVP2,2013-09-21 16:20:00,
2013-09-21 11:22:00,54.3,42.5,30.01,NNE,32,0.0,0.0,64,0.00,,,0.00,WUHU216DAVISVP2,2013-09-21 16:22:00,
2013-09-21 11:25:00,54.5,42.6,30.00,North,0,0.0,0.0,64,0.00,,,0.00,WUHU216DAVISVP2,2013-09-21 16:25:00,
2013-09-21 11:27:00,54.6,42.4,30.01,NNE,32,0.0,0.0,63,0.00,,,0.00,WUHU216DAVISVP2,2013-09-21 16:27:00,
2013-09-21 11:30:00,54.2,41.9,30.01,North,0,0.0,3.0,63,0.00,,,0.00,WUHU216DAVISVP2,2013-09-21 16:30:00,
2013-09-21 11:32:00,54.2,42.0,30.00,North,9,0.0,3.0,63,0.00,,,0.00,WUHU216DAVISVP2,2013-09-21 16:32:00,
2013-09-21 11:35:00,54.5,42.6,30.00,North,0,0.0,3.0,64,0.00,,,0.00,WUHU216DAVISVP2,2013-09-21 16:35:00,
2013-09-21 11:37:00,54.7,42.9,30.00,North,10,0.0,3.0,64,0.00,,,0.00,WUHU216DAVISVP2,2013-09-21 16:37:00,
2013-09-21 11:40:00,55.4,43.0,30.00,North,0,0.0,3.0,63,0.00,,,0.00,WUHU216DAVISVP2,2013-09-21 16:40:00,
2013-09-21 11:42:00,55.6,42.9,30.00,North,9,0.0,0.0,62,0.00,,,0.00,WUHU216DAVISVP2,2013-09-21 16:42:00,
2013-09-21 11:45:00,56.0,42.7,30.00,North,0,0.0,2.0,61,0.00,,,0.00,WUHU216DAVISVP2,2013-09-21 16:45:00,
2013-09-21 11:47:00,56.2,43.0,30.00,NNW,334,0.0,2.0,61,0.00,,,0.00,WUHU216DAVISVP2,2013-09-21 16:47:00,
2013-09-21 11:50:00,55.8,42.5,30.00,NNE,23,0.0,3.0,61,0.00,,,0.00,WUHU216DAVISVP2,2013-09-21 16:50:00,
2013-09-21 11:52:00,55.3,42.2,30.00,NNE,31,0.0,3.0,61,0.00,,,0.00,WUHU216DAVISVP2,2013-09-21 16:52:00,
2013-09-21 11:55:00,55.0,42.6,30.00,NNE,23,0.0,3.0,63,0.00,,,0.00,WUHU216DAVISVP2,2013-09-21 16:55:00,
2013-09-21 11:57:00,55.0,42.8,30.00,NNW,346,0.0,3.0,63,0.00,,,0.00,WUHU216DAVISVP2,2013-09-21 16:57:00,
2013-09-21 12:00:00,55.5,43.1,30.00,North,0,0.0,3.0,63,0.00,,,0.00,WUHU216DAVISVP2,2013-09-21 17:00:00,
2013-09-21 12:02:00,55.6,42.5,30.00,NNW,346,0.0,1.0,61,0.00,,,0.00,WUHU216DAVISVP2,2013-09-21 17:02:00,
2013-09-21 12:05:00,55.9,42.6,30.00,North,0,0.0,3.0,61,0.00,,,0.00,WUHU216DAVISVP2,2013-09-21 17:05:00,
2013-09-21 12:07:00,56.1,43.0,30.00,NNW,347,0.0,0.0,61,0.00,,,0.00,WUHU216DAVISVP2,2013-09-21 17:07:00,
2013-09-21 12:10:00,55.7,42.0,29.99,North,0,0.0,0.0,60,0.00,,,0.00,WUHU216DAVISVP2,2013-09-21 17:10:00,
2013-09-21 12:12:00,55.7,42.1,29.99,NNW,347,0.0,0.0,60,0.00,,,0.00,WUHU216DAVISVP2,2013-09-21 17:12:00,
2013-09-21 12:15:00,56.1,42.4,29.99,North,0,0.0,0.0,60,0.00,,,0.00,WUHU216DAVISVP2,2013-09-21 17:15:00,
2013-09-21 12:17:00,56.2,42.6,29.99,NNW,347,0.0,0.0,60,0.00,,,0.00,WUHU216DAVISVP2,2013-09-21 17:17:00,
2013-09-21 12:20:00,57.0,43.2,29.99,North,0,0.0,0.0,60,0.00,,,0.00,WUHU216DAVISVP2,2013-09-21 17:20:00,
2013-09-21 12:22:00,57.2,43.1,29.99,West,269,0.0,0.0,59,0.00,,,0.00,WUHU216DAVISVP2,2013-09-21 17:22:00,
2013-09-21 12:25:00,57.8,44.4,29.99,North,0,0.0,0.0,61,0.00,,,0.00,WUHU216DAVISVP2,2013-09-21 17:25:00,
2013-09-21 12:27:00,58.0,44.8,29.98,West,270,0.0,0.0,61,0.00,,,0.00,WUHU216DAVISVP2,2013-09-21 17:27:00,
2013-09-21 12:30:00,58.4,44.1,29.98,North,0,0.0,0.0,59,0.00,,,0.00,WUHU216DAVISVP2,2013-09-21 17:30:00,
2013-09-21 12:32:00,58.4,43.3,29.98,West,270,0.0,0.0,57,0.00,,,0.00,WUHU216DAVISVP2,2013-09-21 17:32:00,
2013-09-21 12:35:00,58.3,43.6,29.98,North,0,0.0,0.0,58,0.00,,,0.00,WUHU216DAVISVP2,2013-09-21 17:35:00,
2013-09-21 12:37:00,58.3,43.7,29.98,West,271,0.0,1.0,58,0.00,,,0.00,WUHU216DAVISVP2,2013-09-21 17:37:00,
2013-09-21 12:40:00,58.2,43.5,29.98,West,270,0.0,1.0,58,0.00,,,0.00,WUHU216DAVISVP2,2013-09-21 17:40:00,
2013-09-21 12:42:00,58.4,43.3,29.98,West,276,0.0,1.0,57,0.00,,,0.00,WUHU216DAVISVP2,2013-09-21 17:42:00,
2013-09-21 12:45:00,59.0,43.3,29.98,North,0,0.0,1.0,56,0.00,,,0.00,WUHU216DAVISVP2,2013-09-21 17:45:00,
2013-09-21 12:47:00,59.0,43.9,29.98,West,277,0.0,1.0,57,0.00,,,0.00,WUHU216DAVISVP2,2013-09-21 17:47:00,
2013-09-21 12:50:00,59.0,43.3,29.98,North,0,0.0,1.0,56,0.00,,,0.00,WUHU216DAVISVP2,2013-09-21 17:50:00,
2013-09-21 12:52:00,59.0,43.4,29.98,West,275,0.0,0.0,56,0.00,,,0.00,WUHU216DAVISVP2,2013-09-21 17:52:00,
2013-09-21 12:55:00,59.0,44.7,29.98,North,0,0.0,0.0,59,0.00,,,0.00,WUHU216DAVISVP2,2013-09-21 17:55:00,
2013-09-21 12:57:00,58.9,43.3,29.98,West,277,0.0,0.0,56,0.00,,,0.00,WUHU216DAVISVP2,2013-09-21 17:57:00,
2013-09-21 13:00:00,59.0,43.3,29.97,North,0,0.0,0.0,56,0.00,,,0.00,WUHU216DAVISVP2,2013-09-21 18:00:00,
2013-09-21 13:02:00,59.0,43.4,29.97,West,279,0.0,0.0,56,0.00,,,0.00,WUHU216DAVISVP2,2013-09-21 18:02:00,
2013-09-21 13:05:00,58.1,42.0,29.97,WNW,293,0.0,3.0,55,0.00,,,0.00,WUHU216DAVISVP2,2013-09-21 18:05:00,
2013-09-21 13:07:00,57.6,42.1,29.97,WNW,286,0.0,3.0,56,0.00,,,0.00,WUHU216DAVISVP2,2013-09-21 18:07:00,
2013-09-21 13:10:00,57.8,43.1,29.97,WNW,293,0.0,3.0,58,0.00,,,0.00,WUHU216DAVISVP2,2013-09-21 18:10:00,
2013-09-21 13:12:00,58.1,43.0,29.97,WNW,286,0.0,3.0,57,0.00,,,0.00,WUHU216DAVISVP2,2013-09-21 18:12:00,
2013-09-21 13:15:00,58.9,43.7,29.96,WNW,293,0.0,3.0,57,0.00,,,0.00,WUHU216DAVISVP2,2013-09-21 18:15:00,
2013-09-21 13:17:00,59.0,43.4,29.96,WNW,287,0.0,3.0,56,0.00,,,0.00,WUHU216DAVISVP2,2013-09-21 18:17:00,
2013-09-21 13:20:00,59.0,44.2,29.96,North,0,0.0,3.0,58,0.00,,,0.00,WUHU216DAVISVP2,2013-09-21 18:20:00,
2013-09-21 13:22:00,59.0,43.4,29.96,WNW,288,0.0,3.0,56,0.00,,,0.00,WUHU216DAVISVP2,2013-09-21 18:22:00,
2013-09-21 13:25:00,58.4,42.3,29.96,North,0,1.0,6.0,55,0.00,,,0.00,WUHU216DAVISVP2,2013-09-21 18:25:00,
2013-09-21 13:27:00,58.1,42.6,29.96,North,360,2.0,6.0,56,0.00,,,0.00,WUHU216DAVISVP2,2013-09-21 18:27:00,
2013-09-21 13:30:00,57.9,42.8,29.96,North,0,0.0,6.0,57,0.00,,,0.00,WUHU216DAVISVP2,2013-09-21 18:30:00,
2013-09-21 13:32:00,58.0,43.4,29.96,NNE,25,3.0,6.0,58,0.00,,,0.00,WUHU216DAVISVP2,2013-09-21 18:32:00,
2013-09-21 13:35:00,58.1,42.9,29.96,NNE,23,0.0,6.0,57,0.00,,,0.00,WUHU216DAVISVP2,2013-09-21 18:35:00,
2013-09-21 13:37:00,58.3,43.2,29.96,NNE,24,0.0,5.0,57,0.00,,,0.00,WUHU216DAVISVP2,2013-09-21 18:37:00,
2013-09-21 13:40:00,59.0,43.8,29.95,North,0,0.0,5.0,57,0.00,,,0.00,WUHU216DAVISVP2,2013-09-21 18:40:00,
2013-09-21 13:42:00,59.0,43.4,29.95,NW,325,0.0,3.0,56,0.00,,,0.00,WUHU216DAVISVP2,2013-09-21 18:42:00,
2013-09-21 13:45:00,59.4,43.2,29.95,North,0,0.0,5.0,55,0.00,,,0.00,WUHU216DAVISVP2,2013-09-21 18:45:00,
2013-09-21 13:47:00,59.5,43.4,29.95,NW,325,0.0,0.0,55,0.00,,,0.00,WUHU216DAVISVP2,2013-09-21 18:47:00,
2013-09-21 13:50:00,59.9,43.7,29.95,WNW,293,0.0,2.0,55,0.00,,,0.00,WUHU216DAVISVP2,2013-09-21 18:50:00,
2013-09-21 13:52:00,60.3,44.1,29.95,WNW,294,0.0,2.0,55,0.00,,,0.00,WUHU216DAVISVP2,2013-09-21 18:52:00,
2013-09-21 13:55:00,60.9,44.1,29.95,NW,315,0.0,2.0,54,0.00,,,0.00,WUHU216DAVISVP2,2013-09-21 18:55:00,
2013-09-21 13:57:00,60.7,43.5,29.95,NW,310,0.0,3.0,53,0.00,,,0.00,WUHU216DAVISVP2,2013-09-21 18:57:00,
2013-09-21 14:00:00,60.8,44.5,29.94,NW,315,0.0,3.0,55,0.00,,,0.00,WUHU216DAVISVP2,2013-09-21 19:00:00,
2013-09-21 14:02:00,60.9,43.7,29.94,WNW,302,0.0,3.0,53,0.00,,,0.00,WUHU216DAVISVP2,2013-09-21 19:02:00,
2013-09-21 14:05:00,60.8,44.5,29.94,North,0,0.0,3.0,55,0.00,,,0.00,WUHU216DAVISVP2,2013-09-21 19:05:00,
2013-09-21 14:07:00,60.7,43.5,29.94,NW,318,0.0,0.0,53,0.00,,,0.00,WUHU216DAVISVP2,2013-09-21 19:07:00,
2013-09-21 14:10:00,60.5,43.8,29.94,North,0,0.0,3.0,54,0.00,,,0.00,WUHU216DAVISVP2,2013-09-21 19:10:00,
2013-09-21 14:12:00,60.7,44.0,29.94,NW,317,0.0,0.0,54,0.00,,,0.00,WUHU216DAVISVP2,2013-09-21 19:12:00,
2013-09-21 14:15:00,61.2,44.9,29.94,WNW,293,0.0,1.0,55,0.00,,,0.00,WUHU216DAVISVP2,2013-09-21 19:15:00,
2013-09-21 14:17:00,61.3,44.1,29.94,WNW,293,0.0,1.0,53,0.00,,,0.00,WUHU216DAVISVP2,2013-09-21 19:17:00,
2013-09-21 14:20:00,61.3,44.0,29.94,WNW,293,0.0,1.0,53,0.00,,,0.00,WUHU216DAVISVP2,2013-09-21 19:20:00,
2013-09-21 14:22:00,61.2,43.5,29.93,North,350,2.0,5.0,52,0.00,,,0.00,WUHU216DAVISVP2,2013-09-21 19:22:00,
2013-09-21 14:25:00,60.2,43.5,29.93,NNW,338,1.0,5.0,54,0.00,,,0.00,WUHU216DAVISVP2,2013-09-21 19:25:00,
2013-09-21 14:27:00,60.1,43.5,29.93,WNW,296,0.0,5.0,54,0.00,,,0.00,WUHU216DAVISVP2,2013-09-21 19:27:00,
2013-09-21 14:30:00,59.9,44.2,29.93,WNW,293,0.0,5.0,56,0.00,,,0.00,WUHU216DAVISVP2,2013-09-21 19:30:00,
2013-09-21 14:32:00,60.1,45.4,29.93,WNW,297,0.0,4.0,58,0.00,,,0.00,WUHU216DAVISVP2,2013-09-21 19:32:00,
2013-09-21 14:35:00,60.9,44.6,29.93,West,270,0.0,5.0,55,0.00,,,0.00,WUHU216DAVISVP2,2013-09-21 19:35:00,
2013-09-21 14:37:00,61.4,45.2,29.93,West,276,0.0,2.0,55,0.00,,,0.00,WUHU216DAVISVP2,2013-09-21 19:37:00,
2013-09-21 14:40:00,62.3,44.9,29.93,SSW,203,1.0,5.0,53,0.00,,,0.00,WUHU216DAVISVP2,2013-09-21 19:40:00,
2013-09-21 14:42:00,62.6,44.3,29.93,SSW,200,0.0,5.0,51,0.00,,,0.00,WUHU216DAVISVP2,2013-09-21 19:42:00,
2013-09-21 14:45:00,63.1,44.7,29.92,SSW,203,1.0,5.0,51,0.00,,,0.00,WUHU216DAVISVP2,2013-09-21 19:45:00,
2013-09-21 14:47:00,63.2,44.3,29.92,SSW,200,0.0,5.0,50,0.00,,,0.00,WUHU216DAVISVP2,2013-09-21 19:47:00,
2013-09-21 14:50:00,63.6,45.1,29.92,North,0,0.0,5.0,51,0.00,,,0.00,WUHU216DAVISVP2,2013-09-21 19:50:00,
2013-09-21 14:52:00,63.5,44.5,29.92,SSW,200,0.0,4.0,50,0.00,,,0.00,WUHU216DAVISVP2,2013-09-21 19:52:00,
2013-09-21 14:55:00,63.6,45.1,29.92,SSW,203,0.0,4.0,51,0.00,,,0.00,WUHU216DAVISVP2,2013-09-21 19:55:00,
2013-09-21 14:57:00,63.7,45.3,29.92,SSW,199,0.0,1.0,51,0.00,,,0.00,WUHU216DAVISVP2,2013-09-21 19:57:00,
2013-09-21 15:00:00,63.7,45.7,29.92,North,0,0.0,1.0,52,0.00,,,0.00,WUHU216DAVISVP2,2013-09-21 20:00:00,
2013-09-21 15:02:00,63.8,45.9,29.92,SSW,199,0.0,1.0,52,0.00,,,0.00,WUHU216DAVISVP2,2013-09-21 20:02:00,
2013-09-21 15:05:00,63.5,45.0,29.92,North,0,0.0,1.0,51,0.00,,,0.00,WUHU216DAVISVP2,2013-09-21 20:05:00,
2013-09-21 15:07:00,63.6,44.1,29.92,SSW,200,0.0,1.0,49,0.00,,,0.00,WUHU216DAVISVP2,2013-09-21 20:07:00,
2013-09-21 15:10:00,64.0,45.0,29.92,SSW,203,0.0,4.0,50,0.00,,,0.00,WUHU216DAVISVP2,2013-09-21 20:10:00,
2013-09-21 15:12:00,64.0,45.5,29.92,SSW,199,0.0,4.0,51,0.00,,,0.00,WUHU216DAVISVP2,2013-09-21 20:12:00,
2013-09-21 15:15:00,64.4,45.3,29.92,SSW,203,0.0,4.0,50,0.00,,,0.00,WUHU216DAVISVP2,2013-09-21 20:15:00,
2013-09-21 15:17:00,64.5,44.9,29.91,SSW,199,0.0,4.0,49,0.00,,,0.00,WUHU216DAVISVP2,2013-09-21 20:17:00,
2013-09-21 15:20:00,64.6,44.5,29.91,North,0,0.0,4.0,48,0.00,,,0.00,WUHU216DAVISVP2,2013-09-21 20:20:00,
2013-09-21 15:22:00,64.6,44.5,29.91,SSW,198,3.0,3.0,48,0.00,,,0.00,WUHU216DAVISVP2,2013-09-21 20:22:00,
2013-09-21 15:25:00,64.6,43.9,29.91,SSW,203,2.0,6.0,47,0.00,,,0.00,WUHU216DAVISVP2,2013-09-21 20:25:00,
2013-09-21 15:27:00,64.5,43.8,29.91,SW,224,0.0,6.0,47,0.00,,,0.00,WUHU216DAVISVP2,2013-09-21 20:27:00,
2013-09-21 15:30:00,64.0,43.9,29.91,SW,225,0.0,6.0,48,0.00,,,0.00,WUHU216DAVISVP2,2013-09-21 20:30:00,
2013-09-21 15:32:00,63.8,43.7,29.91,SW,224,0.0,6.0,48,0.00,,,0.00,WUHU216DAVISVP2,2013-09-21 20:32:00,
2013-09-21 15:35:00,63.7,43.6,29.91,SSW,203,0.0,6.0,48,0.00,,,0.00,WUHU216DAVISVP2,2013-09-21 20:35:00,
2013-09-21 15:37:00,63.8,44.3,29.90,SSW,212,1.0,4.0,49,0.00,,,0.00,WUHU216DAVISVP2,2013-09-21 20:37:00,
2013-09-21 15:40:00,63.4,44.4,29.90,SW,225,0.0,4.0,50,0.00,,,0.00,WUHU216DAVISVP2,2013-09-21 20:40:00,
2013-09-21 15:42:00,63.4,44.5,29.90,SW,218,0.0,4.0,50,0.00,,,0.00,WUHU216DAVISVP2,2013-09-21 20:42:00,
2013-09-21 15:45:00,63.6,44.6,29.90,North,0,0.0,4.0,50,0.00,,,0.00,WUHU216DAVISVP2,2013-09-21 20:45:00,
2013-09-21 15:47:00,63.6,44.1,29.90,SW,218,0.0,2.0,49,0.00,,,0.00,WUHU216DAVISVP2,2013-09-21 20:47:00,
2013-09-21 15:50:00,63.4,44.4,29.90,North,0,0.0,2.0,50,0.00,,,0.00,WUHU216DAVISVP2,2013-09-21 20:50:00,
2013-09-21 15:52:00,63.5,45.1,29.90,SW,217,0.0,0.0,51,0.00,,,0.00,WUHU216DAVISVP2,2013-09-21 20:52:00,
2013-09-21 15:55:00,63.8,45.3,29.90,SW,225,0.0,2.0,51,0.00,,,0.00,WUHU216DAVISVP2,2013-09-21 20:55:00,
2013-09-21 15:57:00,64.0,45.0,29.90,SW,222,0.0,2.0,50,0.00,,,0.00,WUHU216DAVISVP2,2013-09-21 20:57:00,
2013-09-21 16:00:00,64.2,44.6,29.89,North,0,0.0,2.0,49,0.00,,,0.00,WUHU216DAVISVP2,2013-09-21 21:00:00,
2013-09-21 16:02:00,64.4,44.8,29.89,SW,224,1.0,2.0,49,0.00,,,0.00,WUHU216DAVISVP2,2013-09-21 21:02:00,
2013-09-21 16:05:00,64.7,45.6,29.90,SW,225,0.0,2.0,50,0.00,,,0.00,WUHU216DAVISVP2,2013-09-21 21:05:00,
2013-09-21 16:07:00,64.8,45.8,29.89,SW,224,0.0,2.0,50,0.00,,,0.00,WUHU216DAVISVP2,2013-09-21 21:07:00,
2013-09-21 16:10:00,64.9,45.8,29.89,SW,225,0.0,2.0,50,0.00,,,0.00,WUHU216DAVISVP2,2013-09-21 21:10:00,
2013-09-21 16:12:00,64.9,45.3,29.89,SW,224,0.0,2.0,49,0.00,,,0.00,WUHU216DAVISVP2,2013-09-21 21:12:00,
2013-09-21 16:15:00,64.2,45.2,29.89,SW,225,0.0,2.0,50,0.00,,,0.00,WUHU216DAVISVP2,2013-09-21 21:15:00,
2013-09-21 16:17:00,63.9,44.9,29.89,North,10,0.0,2.0,50,0.00,,,0.00,WUHU216DAVISVP2,2013-09-21 21:17:00,
2013-09-21 16:20:00,63.5,45.0,29.89,North,0,0.0,2.0,51,0.00,,,0.00,WUHU216DAVISVP2,2013-09-21 21:20:00,
2013-09-21 16:22:00,63.4,45.0,29.89,North,11,0.0,2.0,51,0.00,,,0.00,WUHU216DAVISVP2,2013-09-21 21:22:00,
2013-09-21 16:25:00,63.3,44.3,29.89,North,0,0.0,3.0,50,0.00,,,0.00,WUHU216DAVISVP2,2013-09-21 21:25:00,
2013-09-21 16:27:00,63.4,45.0,29.89,North,11,0.0,3.0,51,0.00,,,0.00,WUHU216DAVISVP2,2013-09-21 21:27:00,
2013-09-21 16:30:00,63.4,44.9,29.88,North,0,0.0,3.0,51,0.00,,,0.00,WUHU216DAVISVP2,2013-09-21 21:30:00,
2013-09-21 16:32:00,63.4,45.0,29.88,North,10,0.0,3.0,51,0.00,,,0.00,WUHU216DAVISVP2,2013-09-21 21:32:00,
2013-09-21 16:35:00,63.6,45.6,29.88,North,0,0.0,3.0,52,0.00,,,0.00,WUHU216DAVISVP2,2013-09-21 21:35:00,
2013-09-21 16:37:00,63.6,45.2,29.88,North,10,0.0,3.0,51,0.00,,,0.00,WUHU216DAVISVP2,2013-09-21 21:37:00,
2013-09-21 16:40:00,63.7,45.7,29.88,North,0,0.0,3.0,52,0.00,,,0.00,WUHU216DAVISVP2,2013-09-21 21:40:00,
2013-09-21 16:42:00,63.7,45.3,29.88,North,11,1.0,3.0,51,0.00,,,0.00,WUHU216DAVISVP2,2013-09-21 21:42:00,
2013-09-21 16:45:00,63.8,45.3,29.88,North,0,0.0,3.0,51,0.00,,,0.00,WUHU216DAVISVP2,2013-09-21 21:45:00,
2013-09-21 16:47:00,63.8,45.4,29.88,North,11,0.0,1.0,51,0.00,,,0.00,WUHU216DAVISVP2,2013-09-21 21:47:00,
2013-09-21 16:50:00,63.6,45.1,29.87,North,0,0.0,3.0,51,0.00,,,0.00,WUHU216DAVISVP2,2013-09-21 21:50:00,
2013-09-21 16:52:00,63.6,45.2,29.87,North,11,0.0,2.0,51,0.00,,,0.00,WUHU216DAVISVP2,2013-09-21 21:52:00,
2013-09-21 16:55:00,63.7,45.7,29.87,North,0,0.0,2.0,52,0.00,,,0.00,WUHU216DAVISVP2,2013-09-21 21:55:00,
2013-09-21 16:57:00,63.7,45.8,29.87,North,11,0.0,2.0,52,0.00,,,0.00,WUHU216DAVISVP2,2013-09-21 21:57:00,
2013-09-21 17:00:00,63.8,45.8,29.87,North,0,0.0,2.0,52,0.00,,,0.00,WUHU216DAVISVP2,2013-09-21 22:00:00,
2013-09-21 17:02:00,63.7,45.8,29.87,North,11,0.0,1.0,52,0.00,,,0.00,WUHU216DAVISVP2,2013-09-21 22:02:00,
2013-09-21 17:05:00,63.7,45.7,29.87,North,0,0.0,1.0,52,0.00,,,0.00,WUHU216DAVISVP2,2013-09-21 22:05:00,
2013-09-21 17:07:00,63.8,45.9,29.87,North,10,0.0,1.0,52,0.00,,,0.00,WUHU216DAVISVP2,2013-09-21 22:07:00,
2013-09-21 17:10:00,63.7,45.7,29.87,North,0,0.0,1.0,52,0.00,,,0.00,WUHU216DAVISVP2,2013-09-21 22:10:00,
2013-09-21 17:12:00,63.7,45.3,29.87,North,10,0.0,1.0,51,0.00,,,0.00,WUHU216DAVISVP2,2013-09-21 22:12:00,
2013-09-21 17:15:00,63.7,44.7,29.87,North,0,0.0,3.0,50,0.00,,,0.00,WUHU216DAVISVP2,2013-09-21 22:15:00,
2013-09-21 17:17:00,63.8,45.4,29.87,North,11,0.0,3.0,51,0.00,,,0.00,WUHU216DAVISVP2,2013-09-21 22:17:00,
2013-09-21 17:20:00,63.6,45.1,29.87,North,0,0.0,3.0,51,0.00,,,0.00,WUHU216DAVISVP2,2013-09-21 22:20:00,
2013-09-21 17:22:00,63.5,45.1,29.87,North,11,0.0,3.0,51,0.00,,,0.00,WUHU216DAVISVP2,2013-09-21 22:22:00,
2013-09-21 17:25:00,63.5,45.0,29.87,North,0,0.0,3.0,51,0.00,,,0.00,WUHU216DAVISVP2,2013-09-21 22:25:00,
2013-09-21 17:27:00,63.5,45.1,29.87,North,10,0.0,1.0,51,0.00,,,0.00,WUHU216DAVISVP2,2013-09-21 22:27:00,
2013-09-21 17:30:00,63.6,45.6,29.87,North,0,0.0,1.0,52,0.00,,,0.00,WUHU216DAVISVP2,2013-09-21 22:30:00,
2013-09-21 17:32:00,63.6,45.7,29.87,North,10,0.0,0.0,52,0.00,,,0.00,WUHU216DAVISVP2,2013-09-21 22:32:00,
2013-09-21 17:35:00,63.5,45.0,29.86,North,0,0.0,2.0,51,0.00,,,0.00,WUHU216DAVISVP2,2013-09-21 22:35:00,
2013-09-21 17:37:00,63.6,45.2,29.87,North,5,0.0,2.0,51,0.00,,,0.00,WUHU216DAVISVP2,2013-09-21 22:37:00,
2013-09-21 17:40:00,63.4,44.9,29.86,North,0,0.0,2.0,51,0.00,,,0.00,WUHU216DAVISVP2,2013-09-21 22:40:00,
2013-09-21 17:42:00,63.4,46.0,29.86,North,5,0.0,2.0,53,0.00,,,0.00,WUHU216DAVISVP2,2013-09-21 22:42:00,
2013-09-21 17:45:00,63.4,44.9,29.86,North,0,0.0,2.0,51,0.00,,,0.00,WUHU216DAVISVP2,2013-09-21 22:45:00,
2013-09-21 17:47:00,63.4,45.5,29.86,North,360,0.0,2.0,52,0.00,,,0.00,WUHU216DAVISVP2,2013-09-21 22:47:00,
2013-09-21 17:50:00,63.4,45.5,29.86,North,0,0.0,2.0,52,0.00,,,0.00,WUHU216DAVISVP2,2013-09-21 22:50:00,
2013-09-21 17:52:00,63.4,45.5,29.86,North,5,0.0,1.0,52,0.00,,,0.00,WUHU216DAVISVP2,2013-09-21 22:52:00,
2013-09-21 17:55:00,63.2,45.8,29.86,North,0,0.0,1.0,53,0.00,,,0.00,WUHU216DAVISVP2,2013-09-21 22:55:00,
2013-09-21 17:57:00,63.2,45.9,29.86,North,5,0.0,1.0,53,0.00,,,0.00,WUHU216DAVISVP2,2013-09-21 22:57:00,
2013-09-21 18:00:00,63.2,45.8,29.86,North,0,0.0,2.0,53,0.00,,,0.00,WUHU216DAVISVP2,2013-09-21 23:00:00,
2013-09-21 18:02:00,63.2,46.4,29.86,North,360,0.0,2.0,54,0.00,,,0.00,WUHU216DAVISVP2,2013-09-21 23:02:00,
2013-09-21 18:05:00,63.2,45.8,29.86,North,0,0.0,2.0,53,0.00,,,0.00,WUHU216DAVISVP2,2013-09-21 23:05:00,
2013-09-21 18:07:00,63.2,46.4,29.86,North,5,0.0,2.0,54,0.00,,,0.00,WUHU216DAVISVP2,2013-09-21 23:07:00,
2013-09-21 18:10:00,63.2,45.8,29.86,North,0,0.0,2.0,53,0.00,,,0.00,WUHU216DAVISVP2,2013-09-21 23:10:00,
2013-09-21 18:12:00,63.1,45.8,29.86,North,5,0.0,2.0,53,0.00,,,0.00,WUHU216DAVISVP2,2013-09-21 23:12:00,
2013-09-21 18:15:00,63.0,45.1,29.86,SSW,203,1.0,6.0,52,0.00,,,0.00,WUHU216DAVISVP2,2013-09-21 23:15:00,
2013-09-21 18:17:00,63.0,45.7,29.86,SSW,195,0.0,6.0,53,0.00,,,0.00,WUHU216DAVISVP2,2013-09-21 23:17:00,
2013-09-21 18:20:00,62.8,45.4,29.86,North,0,0.0,6.0,53,0.00,,,0.00,WUHU216DAVISVP2,2013-09-21 23:20:00,
2013-09-21 18:22:00,62.8,45.5,29.86,SSW,195,0.0,6.0,53,0.00,,,0.00,WUHU216DAVISVP2,2013-09-21 23:22:00,
2013-09-21 18:25:00,62.6,45.2,29.86,North,0,0.0,6.0,53,0.00,,,0.00,WUHU216DAVISVP2,2013-09-21 23:25:00,
2013-09-21 18:27:00,62.5,45.2,29.86,SSW,196,0.0,0.0,53,0.00,,,0.00,WUHU216DAVISVP2,2013-09-21 23:27:00,
2013-09-21 18:30:00,62.3,45.4,29.85,North,0,0.0,0.0,54,0.00,,,0.00,WUHU216DAVISVP2,2013-09-21 23:30:00,
2013-09-21 18:32:00,62.2,45.4,29.85,SSW,196,0.0,0.0,54,0.00,,,0.00,WUHU216DAVISVP2,2013-09-21 23:32:00,
2013-09-21 18:35:00,62.1,45.7,29.85,North,0,0.0,0.0,55,0.00,,,0.00,WUHU216DAVISVP2,2013-09-21 23:35:00,
2013-09-21 18:37:00,62.0,45.7,29.85,SSW,196,0.0,1.0,55,0.00,,,0.00,WUHU216DAVISVP2,2013-09-21 23:37:00,
2013-09-21 18:40:00,61.8,45.5,29.85,SSW,203,0.0,2.0,55,0.00,,,0.00,WUHU216DAVISVP2,2013-09-21 23:40:00,
2013-09-21 18:42:00,61.7,45.5,29.85,SSW,196,0.0,2.0,55,0.00,,,0.00,WUHU216DAVISVP2,2013-09-21 23:42:00,
2013-09-21 18:45:00,61.4,45.6,29.85,SSW,203,0.0,2.0,56,0.00,,,0.00,WUHU216DAVISVP2,2013-09-21 23:45:00,
2013-09-21 18:47:00,61.2,45.5,29.85,SSW,198,0.0,2.0,56,0.00,,,0.00,WUHU216DAVISVP2,2013-09-21 23:47:00,
2013-09-21 18:50:00,61.0,45.7,29.85,North,0,0.0,2.0,57,0.00,,,0.00,WUHU216DAVISVP2,2013-09-21 23:50:00,
2013-09-21 18:52:00,60.9,45.7,29.85,SSW,198,0.0,1.0,57,0.00,,,0.00,WUHU216DAVISVP2,2013-09-21 23:52:00,
2013-09-21 18:55:00,60.7,45.4,29.85,North,0,0.0,1.0,57,0.00,,,0.00,WUHU216DAVISVP2,2013-09-21 23:55:00,
2013-09-21 18:57:00,60.5,45.3,29.85,SSW,198,0.0,0.0,57,0.00,,,0.00,WUHU216DAVISVP2,2013-09-21 23:57:00,
2013-09-21 19:00:00,60.3,45.5,29.85,North,0,0.0,0.0,58,0.00,,,0.00,WUHU216DAVISVP2,2013-09-22 00:00:00,
2013-09-21 19:02:00,60.2,45.5,29.84,SSW,198,0.0,0.0,58,0.00,,,0.00,WUHU216DAVISVP2,2013-09-22 00:02:00,
2013-09-21 19:05:00,60.0,45.6,29.84,North,0,0.0,0.0,59,0.00,,,0.00,WUHU216DAVISVP2,2013-09-22 00:05:00,
2013-09-21 19:07:00,59.9,45.7,29.84,SSW,198,0.0,0.0,59,0.00,,,0.00,WUHU216DAVISVP2,2013-09-22 00:07:00,
2013-09-21 19:10:00,59.7,45.3,29.84,North,0,0.0,0.0,59,0.00,,,0.00,WUHU216DAVISVP2,2013-09-22 00:10:00,
2013-09-21 19:12:00,59.6,45.4,29.84,SSW,198,0.0,0.0,59,0.00,,,0.00,WUHU216DAVISVP2,2013-09-22 00:12:00,
2013-09-21 19:15:00,59.4,45.1,29.84,North,0,0.0,0.0,59,0.00,,,0.00,WUHU216DAVISVP2,2013-09-22 00:15:00,
2013-09-21 19:17:00,59.3,45.1,29.84,SSW,198,0.0,0.0,59,0.00,,,0.00,WUHU216DAVISVP2,2013-09-22 00:17:00,
2013-09-21 19:20:00,59.1,45.2,29.84,North,0,0.0,0.0,60,0.00,,,0.00,WUHU216DAVISVP2,2013-09-22 00:20:00,
2013-09-21 19:22:00,59.0,45.7,29.84,SSW,198,0.0,0.0,61,0.00,,,0.00,WUHU216DAVISVP2,2013-09-22 00:22:00,
2013-09-21 19:25:00,59.0,45.6,29.84,North,0,0.0,0.0,61,0.00,,,0.00,WUHU216DAVISVP2,2013-09-22 00:25:00,
2013-09-21 19:27:00,58.9,45.6,29.84,SSW,198,0.0,0.0,61,0.00,,,0.00,WUHU216DAVISVP2,2013-09-22 00:27:00,
2013-09-21 19:30:00,58.6,45.6,29.85,North,0,0.0,0.0,62,0.00,,,0.00,WUHU216DAVISVP2,2013-09-22 00:30:00,
2013-09-21 19:32:00,58.4,45.6,29.85,SSW,198,0.0,0.0,62,0.00,,,0.00,WUHU216DAVISVP2,2013-09-22 00:32:00,
2013-09-21 19:35:00,58.3,45.3,29.84,North,0,0.0,0.0,62,0.00,,,0.00,WUHU216DAVISVP2,2013-09-22 00:35:00,
2013-09-21 19:37:00,58.2,45.4,29.85,SSW,198,0.0,0.0,62,0.00,,,0.00,WUHU216DAVISVP2,2013-09-22 00:37:00,
2013-09-21 19:40:00,58.0,45.5,29.85,North,0,0.0,0.0,63,0.00,,,0.00,WUHU216DAVISVP2,2013-09-22 00:40:00,
2013-09-21 19:42:00,57.9,45.5,29.84,SSW,198,0.0,0.0,63,0.00,,,0.00,WUHU216DAVISVP2,2013-09-22 00:42:00,
2013-09-21 19:45:00,57.7,45.6,29.84,North,0,0.0,0.0,64,0.00,,,0.00,WUHU216DAVISVP2,2013-09-22 00:45:00,
2013-09-21 19:47:00,57.6,45.6,29.84,SSW,198,0.0,0.0,64,0.00,,,0.00,WUHU216DAVISVP2,2013-09-22 00:47:00,
2013-09-21 19:50:00,57.3,45.6,29.84,North,0,0.0,0.0,65,0.00,,,0.00,WUHU216DAVISVP2,2013-09-22 00:50:00,
2013-09-21 19:52:00,57.2,45.7,29.84,SSW,198,0.0,0.0,65,0.00,,,0.00,WUHU216DAVISVP2,2013-09-22 00:52:00,
2013-09-21 19:55:00,56.9,45.3,29.84,North,0,0.0,0.0,65,0.00,,,0.00,WUHU216DAVISVP2,2013-09-22 00:55:00,
2013-09-21 19:57:00,56.8,45.3,29.84,SSW,198,0.0,0.0,65,0.00,,,0.00,WUHU216DAVISVP2,2013-09-22 00:57:00,
2013-09-21 20:00:00,56.6,45.4,29.84,North,0,0.0,0.0,66,0.00,,,0.00,WUHU216DAVISVP2,2013-09-22 01:00:00,
2013-09-21 20:02:00,56.5,45.4,29.85,SSW,198,0.0,0.0,66,0.00,,,0.00,WUHU216DAVISVP2,2013-09-22 01:02:00,
2013-09-21 20:05:00,56.3,45.1,29.85,North,0,0.0,0.0,66,0.00,,,0.00,WUHU216DAVISVP2,2013-09-22 01:05:00,
2013-09-21 20:07:00,56.2,45.1,29.85,SSW,198,0.0,0.0,66,0.00,,,0.00,WUHU216DAVISVP2,2013-09-22 01:07:00,
2013-09-21 20:10:00,56.1,45.3,29.85,North,0,0.0,0.0,67,0.00,,,0.00,WUHU216DAVISVP2,2013-09-22 01:10:00,
2013-09-21 20:12:00,56.0,45.3,29.85,SSW,198,0.0,0.0,67,0.00,,,0.00,WUHU216DAVISVP2,2013-09-22 01:12:00,
2013-09-21 20:15:00,56.0,45.2,29.85,North,0,0.0,0.0,67,0.00,,,0.00,WUHU216DAVISVP2,2013-09-22 01:15:00,
2013-09-21 20:17:00,56.0,45.3,29.85,SSW,198,0.0,0.0,67,0.00,,,0.00,WUHU216DAVISVP2,2013-09-22 01:17:00,
2013-09-21 20:20:00,55.9,45.1,29.85,North,0,0.0,0.0,67,0.00,,,0.00,WUHU216DAVISVP2,2013-09-22 01:20:00,
2013-09-21 20:22:00,55.9,45.6,29.85,SSW,198,0.0,0.0,68,0.00,,,0.00,WUHU216DAVISVP2,2013-09-22 01:22:00,
2013-09-21 20:25:00,55.8,45.4,29.85,North,0,0.0,0.0,68,0.00,,,0.00,WUHU216DAVISVP2,2013-09-22 01:25:00,
2013-09-21 20:27:00,55.7,45.4,29.85,SSW,198,0.0,0.0,68,0.00,,,0.00,WUHU216DAVISVP2,2013-09-22 01:27:00,
2013-09-21 20:30:00,55.6,45.2,29.85,North,0,0.0,0.0,68,0.00,,,0.00,WUHU216DAVISVP2,2013-09-22 01:30:00,
2013-09-21 20:32:00,55.5,45.2,29.86,SSW,198,0.0,0.0,68,0.00,,,0.00,WUHU216DAVISVP2,2013-09-22 01:32:00,
2013-09-21 20:35:00,55.4,45.0,29.86,North,0,0.0,0.0,68,0.00,,,0.00,WUHU216DAVISVP2,2013-09-22 01:35:00,
2013-09-21 20:37:00,55.4,45.1,29.86,SSW,198,0.0,0.0,68,0.00,,,0.00,WUHU216DAVISVP2,2013-09-22 01:37:00,
2013-09-21 20:40:00,55.2,44.8,29.86,North,0,0.0,0.0,68,0.00,,,0.00,WUHU216DAVISVP2,2013-09-22 01:40:00,
2013-09-21 20:42:00,55.1,45.2,29.86,SSW,198,0.0,0.0,69,0.00,,,0.00,WUHU216DAVISVP2,2013-09-22 01:42:00,
2013-09-21 20:45:00,55.0,45.0,29.86,North,0,0.0,0.0,69,0.00,,,0.00,WUHU216DAVISVP2,2013-09-22 01:45:00,
2013-09-21 20:47:00,54.9,45.0,29.86,SSW,198,0.0,0.0,69,0.00,,,0.00,WUHU216DAVISVP2,2013-09-22 01:47:00,
2013-09-21 20:50:00,54.8,44.8,29.86,North,0,0.0,0.0,69,0.00,,,0.00,WUHU216DAVISVP2,2013-09-22 01:50:00,
2013-09-21 20:52:00,54.7,44.8,29.86,SSW,198,0.0,0.0,69,0.00,,,0.00,WUHU216DAVISVP2,2013-09-22 01:52:00,
2013-09-21 20:55:00,54.6,44.6,29.86,North,0,0.0,0.0,69,0.00,,,0.00,WUHU216DAVISVP2,2013-09-22 01:55:00,
2013-09-21 20:57:00,54.5,44.7,29.86,SSW,198,0.0,0.0,69,0.00,,,0.00,WUHU216DAVISVP2,2013-09-22 01:57:00,
2013-09-21 21:00:00,54.4,44.4,29.86,North,0,0.0,0.0,69,0.00,,,0.00,WUHU216DAVISVP2,2013-09-22 02:00:00,
2013-09-21 21:02:00,54.4,44.9,29.86,SSW,198,0.0,0.0,70,0.00,,,0.00,WUHU216DAVISVP2,2013-09-22 02:02:00,
2013-09-21 21:05:00,54.3,44.7,29.86,North,0,0.0,0.0,70,0.00,,,0.00,WUHU216DAVISVP2,2013-09-22 02:05:00,
2013-09-21 21:07:00,54.3,44.8,29.86,SSW,198,0.0,0.0,70,0.00,,,0.00,WUHU216DAVISVP2,2013-09-22 02:07:00,
2013-09-21 21:10:00,54.2,44.6,29.86,North,0,0.0,0.0,70,0.00,,,0.00,WUHU216DAVISVP2,2013-09-22 02:10:00,
2013-09-21 21:12:00,54.2,44.7,29.86,SSW,198,0.0,0.0,70,0.00,,,0.00,WUHU216DAVISVP2,2013-09-22 02:12:00,
2013-09-21 21:15:00,54.2,44.6,29.86,North,0,0.0,0.0,70,0.00,,,0.00,WUHU216DAVISVP2,2013-09-22 02:15:00,
2013-09-21 21:17:00,54.2,44.7,29.86,SSW,199,0.0,0.0,70,0.00,,,0.00,WUHU216DAVISVP2,2013-09-22 02:17:00,
2013-09-21 21:20:00,54.2,44.6,29.86,North,0,0.0,0.0,70,0.00,,,0.00,WUHU216DAVISVP2,2013-09-22 02:20:00,
2013-09-21 21:22:00,54.2,44.7,29.86,SSW,199,0.0,0.0,70,0.00,,,0.00,WUHU216DAVISVP2,2013-09-22 02:22:00,
2013-09-21 21:25:00,54.3,44.7,29.86,North,0,0.0,0.0,70,0.00,,,0.00,WUHU216DAVISVP2,2013-09-22 02:25:00,
2013-09-21 21:27:00,54.4,44.9,29.86,SSW,199,0.0,0.0,70,0.00,,,0.00,WUHU216DAVISVP2,2013-09-22 02:27:00,
2013-09-21 21:30:00,54.4,44.8,29.86,North,0,0.0,0.0,70,0.00,,,0.00,WUHU216DAVISVP2,2013-09-22 02:30:00,
2013-09-21 21:32:00,54.5,45.0,29.86,SSW,199,0.0,0.0,70,0.00,,,0.00,WUHU216DAVISVP2,2013-09-22 02:32:00,
2013-09-21 21:35:00,54.4,44.8,29.86,North,0,0.0,0.0,70,0.00,,,0.00,WUHU216DAVISVP2,2013-09-22 02:35:00,
2013-09-21 21:37:00,54.4,44.9,29.86,SSW,199,0.0,0.0,70,0.00,,,0.00,WUHU216DAVISVP2,2013-09-22 02:37:00,
2013-09-21 21:40:00,54.5,44.9,29.86,North,0,0.0,0.0,70,0.00,,,0.00,WUHU216DAVISVP2,2013-09-22 02:40:00,
2013-09-21 21:42:00,54.4,44.9,29.86,SSW,199,0.0,0.0,70,0.00,,,0.00,WUHU216DAVISVP2,2013-09-22 02:42:00,
2013-09-21 21:45:00,54.4,44.8,29.86,North,0,0.0,0.0,70,0.00,,,0.00,WUHU216DAVISVP2,2013-09-22 02:45:00,
2013-09-21 21:47:00,54.4,44.9,29.86,SSW,199,0.0,0.0,70,0.00,,,0.00,WUHU216DAVISVP2,2013-09-22 02:47:00,
2013-09-21 21:50:00,54.4,44.8,29.86,North,0,0.0,0.0,70,0.00,,,0.00,WUHU216DAVISVP2,2013-09-22 02:50:00,
2013-09-21 21:52:00,54.4,44.9,29.86,SSW,198,0.0,0.0,70,0.00,,,0.00,WUHU216DAVISVP2,2013-09-22 02:52:00,
2013-09-21 21:55:00,54.4,44.4,29.86,North,0,0.0,0.0,69,0.00,,,0.00,WUHU216DAVISVP2,2013-09-22 02:55:00,
2013-09-21 21:57:00,54.3,44.8,29.86,SSW,200,0.0,0.0,70,0.00,,,0.00,WUHU216DAVISVP2,2013-09-22 02:57:00,
2013-09-21 22:00:00,54.3,44.7,29.85,SSW,203,0.0,3.0,70,0.00,,,0.00,WUHU216DAVISVP2,2013-09-22 03:00:00,
2013-09-21 22:02:00,54.3,44.8,29.86,SSW,198,0.0,3.0,70,0.00,,,0.00,WUHU216DAVISVP2,2013-09-22 03:02:00,
2013-09-21 22:05:00,54.3,44.7,29.86,North,0,0.0,3.0,70,0.00,,,0.00,WUHU216DAVISVP2,2013-09-22 03:05:00,
2013-09-21 22:07:00,54.3,44.5,29.86,SSW,198,0.0,3.0,69,0.00,,,0.00,WUHU216DAVISVP2,2013-09-22 03:07:00,
2013-09-21 22:10:00,54.3,44.7,29.86,North,0,0.0,3.0,70,0.00,,,0.00,WUHU216DAVISVP2,2013-09-22 03:10:00,
2013-09-21 22:12:00,54.2,44.7,29.86,SSW,198,0.0,0.0,70,0.00,,,0.00,WUHU216DAVISVP2,2013-09-22 03:12:00,
2013-09-21 22:15:00,54.2,44.6,29.86,North,0,0.0,0.0,70,0.00,,,0.00,WUHU216DAVISVP2,2013-09-22 03:15:00,
2013-09-21 22:17:00,54.1,44.6,29.86,SSW,198,0.0,0.0,70,0.00,,,0.00,WUHU216DAVISVP2,2013-09-22 03:17:00,
2013-09-21 22:20:00,54.1,44.5,29.86,North,0,0.0,0.0,70,0.00,,,0.00,WUHU216DAVISVP2,2013-09-22 03:20:00,
2013-09-21 22:22:00,54.1,44.6,29.86,SSW,198,0.0,0.0,70,0.00,,,0.00,WUHU216DAVISVP2,2013-09-22 03:22:00,
2013-09-21 22:25:00,54.0,44.4,29.86,North,0,0.0,0.0,70,0.00,,,0.00,WUHU216DAVISVP2,2013-09-22 03:25:00,
2013-09-21 22:27:00,54.0,45.3,29.86,SSW,198,0.0,0.0,72,0.00,,,0.00,WUHU216DAVISVP2,2013-09-22 03:27:00,
2013-09-21 22:30:00,53.9,44.3,29.86,North,0,0.0,0.0,70,0.00,,,0.00,WUHU216DAVISVP2,2013-09-22 03:30:00,
2013-09-21 22:32:00,53.8,44.4,29.86,SSW,198,0.0,0.0,70,0.00,,,0.00,WUHU216DAVISVP2,2013-09-22 03:32:00,
2013-09-21 22:35:00,53.7,44.1,29.86,North,0,0.0,0.0,70,0.00,,,0.00,WUHU216DAVISVP2,2013-09-22 03:35:00,
2013-09-21 22:37:00,53.7,44.3,29.86,SSW,198,0.0,0.0,70,0.00,,,0.00,WUHU216DAVISVP2,2013-09-22 03:37:00,
2013-09-21 22:40:00,53.6,44.0,29.85,SSW,203,0.0,1.0,70,0.00,,,0.00,WUHU216DAVISVP2,2013-09-22 03:40:00,
2013-09-21 22:42:00,53.6,44.2,29.85,SSW,206,0.0,1.0,70,0.00,,,0.00,WUHU216DAVISVP2,2013-09-22 03:42:00,
2013-09-21 22:45:00,53.7,44.1,29.85,SSW,203,0.0,1.0,70,0.00,,,0.00,WUHU216DAVISVP2,2013-09-22 03:45:00,
2013-09-21 22:47:00,53.7,44.3,29.85,SSW,206,0.0,1.0,70,0.00,,,0.00,WUHU216DAVISVP2,2013-09-22 03:47:00,
2013-09-21 22:50:00,53.8,44.2,29.85,North,0,0.0,3.0,70,0.00,,,0.00,WUHU216DAVISVP2,2013-09-22 03:50:00,
2013-09-21 22:52:00,53.9,44.5,29.85,East,80,0.0,3.0,70,0.00,,,0.00,WUHU216DAVISVP2,2013-09-22 03:52:00,
2013-09-21 22:55:00,53.9,44.3,29.85,North,0,0.0,3.0,70,0.00,,,0.00,WUHU216DAVISVP2,2013-09-22 03:55:00,
2013-09-21 22:57:00,53.9,44.5,29.85,East,81,0.0,3.0,70,0.00,,,0.00,WUHU216DAVISVP2,2013-09-22 03:57:00,
2013-09-21 23:00:00,53.9,44.3,29.85,North,0,0.0,3.0,70,0.00,,,0.00,WUHU216DAVISVP2,2013-09-22 04:00:00,
2013-09-21 23:01:00,53.9,44.5,29.85,East,80,0.0,0.0,70,0.00,,,0.00,WUHU216DAVISVP2,2013-09-22 04:01:00,
2013-09-21 23:05:00,53.9,44.3,29.85,South,180,0.0,3.0,70,0.00,,,0.00,WUHU216DAVISVP2,2013-09-22 04:05:00,
2013-09-21 23:06:00,53.9,44.5,29.85,South,182,0.0,3.0,70,0.00,,,0.00,WUHU216DAVISVP2,2013-09-22 04:06:00,
2013-09-21 23:10:00,53.8,44.2,29.85,WNW,293,0.0,3.0,70,0.00,,,0.00,WUHU216DAVISVP2,2013-09-22 04:10:00,
2013-09-21 23:11:00,53.8,44.4,29.85,WNW,284,0.0,3.0,70,0.00,,,0.00,WUHU216DAVISVP2,2013-09-22 04:11:00,
2013-09-21 23:15:00,53.7,44.1,29.85,North,0,0.0,3.0,70,0.00,,,0.00,WUHU216DAVISVP2,2013-09-22 04:15:00,
2013-09-21 23:16:00,53.6,44.2,29.85,WNW,284,0.0,3.0,70,0.00,,,0.00,WUHU216DAVISVP2,2013-09-22 04:16:00,
2013-09-21 23:20:00,53.5,44.0,29.85,North,0,0.0,3.0,70,0.00,,,0.00,WUHU216DAVISVP2,2013-09-22 04:20:00,
2013-09-21 23:21:00,53.4,44.3,29.85,SW,216,0.0,0.0,71,0.00,,,0.00,WUHU216DAVISVP2,2013-09-22 04:21:00,
2013-09-21 23:25:00,53.3,44.1,29.85,North,0,0.0,0.0,71,0.00,,,0.00,WUHU216DAVISVP2,2013-09-22 04:25:00,
2013-09-21 23:26:00,53.2,44.1,29.85,SW,216,0.0,0.0,71,0.00,,,0.00,WUHU216DAVISVP2,2013-09-22 04:26:00,
2013-09-21 23:30:00,53.1,43.9,29.85,SW,225,0.0,1.0,71,0.00,,,0.00,WUHU216DAVISVP2,2013-09-22 04:30:00,
2013-09-21 23:31:00,53.0,44.0,29.85,SW,216,0.0,1.0,71,0.00,,,0.00,WUHU216DAVISVP2,2013-09-22 04:31:00,
2013-09-21 23:35:00,52.9,43.7,29.85,North,0,0.0,1.0,71,0.00,,,0.00,WUHU216DAVISVP2,2013-09-22 04:35:00,
2013-09-21 23:36:00,52.8,43.8,29.85,SW,215,0.0,1.0,71,0.00,,,0.00,WUHU216DAVISVP2,2013-09-22 04:36:00,
2013-09-21 23:40:00,52.7,43.9,29.85,North,0,0.0,1.0,72,0.00,,,0.00,WUHU216DAVISVP2,2013-09-22 04:40:00,
2013-09-21 23:41:00,52.6,43.9,29.85,SW,215,0.0,0.0,72,0.00,,,0.00,WUHU216DAVISVP2,2013-09-22 04:41:00,
2013-09-21 23:45:00,52.5,43.7,29.85,North,0,0.0,0.0,72,0.00,,,0.00,WUHU216DAVISVP2,2013-09-22 04:45:00,
2013-09-21 23:46:00,52.4,43.7,29.85,SW,216,0.0,0.0,72,0.00,,,0.00,WUHU216DAVISVP2,2013-09-22 04:46:00,
2013-09-21 23:50:00,52.3,43.5,29.85,North,0,0.0,0.0,72,0.00,,,0.00,WUHU216DAVISVP2,2013-09-22 04:50:00,
2013-09-21 23:51:00,52.3,43.6,29.85,SW,215,0.0,0.0,72,0.00,,,0.00,WUHU216DAVISVP2,2013-09-22 04:51:00,
2013-09-21 23:55:00,52.2,43.4,29.85,North,0,0.0,0.0,72,0.00,,,0.00,WUHU216DAVISVP2,2013-09-22 04:55:00,
2013-09-21 23:56:00,52.2,43.9,29.85,SW,215,0.0,0.0,73,0.00,,,0.00,WUHU216DAVISVP2,2013-09-22 04:56:00,